Wetterdaten: Mittwoch, 12.07.2023
Datum Zeit Temp. Aussen Temp. o. S. Temp +5cm Feuchte Auss Luftdruck Regen Sonnenschein Regendauer Solar Windben Empfang
12.07.2023 00:00 23,9 C 22,2 C 18,9 C 78 % 1007,7 hPa 0,0 l/m 0 min 0 min 0 W/m 9,7 km/h (2 Bft) 100,00 %
12.07.2023 00:02 23,9 C 22,2 C 18,9 C 78 % 1007,7 hPa 0,0 l/m 0 min 0 min 0 W/m 6,4 km/h (2 Bft) 14,29 %
12.07.2023 00:04 23,8 C 22,2 C 18,9 C 79 % 1007,6 hPa 0,0 l/m 0 min 0 min 0 W/m 9,7 km/h (2 Bft) 81,82 %
12.07.2023 00:08 23,7 C 22,2 C 18,9 C 79 % 1007,7 hPa 0,0 l/m 0 min 0 min 0 W/m 12,9 km/h (3 Bft) 99,01 %
12.07.2023 00:10 23,6 C 22,2 C 18,9 C 79 % 1007,8 hPa 0,0 l/m 0 min 0 min 0 W/m 16,1 km/h (3 Bft) 100,00 %
12.07.2023 00:12 23,6 C 22,2 C 18,9 C 79 % 1007,9 hPa 0,0 l/m 0 min 0 min 0 W/m 12,9 km/h (3 Bft) 97,96 %
12.07.2023 00:14 23,5 C 22,2 C 18,9 C 80 % 1008,1 hPa 0,0 l/m 0 min 0 min 0 W/m 12,9 km/h (3 Bft) 100,00 %
12.07.2023 00:16 23,4 C 22,2 C 18,9 C 80 % 1008,2 hPa 0,0 l/m 0 min 0 min 0 W/m 9,7 km/h (2 Bft) 97,87 %
12.07.2023 00:18 23,4 C 22,2 C 18,9 C 80 % 1008,3 hPa 0,0 l/m 0 min 0 min 0 W/m 16,1 km/h (3 Bft) 100,00 %
12.07.2023 00:20 23,4 C 22,2 C 18,9 C 81 % 1008,4 hPa 0,0 l/m 0 min 0 min 0 W/m 12,9 km/h (3 Bft) 100,00 %
12.07.2023 00:22 23,3 C 22,2 C 18,9 C 81 % 1008,4 hPa 0,0 l/m 0 min 0 min 0 W/m 12,9 km/h (3 Bft) 100,00 %
12.07.2023 00:24 23,3 C 22,2 C 18,9 C 81 % 1008,5 hPa 0,0 l/m 0 min 0 min 0 W/m 29,0 km/h (5 Bft) 100,00 %
12.07.2023 00:26 23,2 C 22,2 C 18,9 C 81 % 1008,7 hPa 0,0 l/m 0 min 0 min 0 W/m 16,1 km/h (3 Bft) 100,00 %
12.07.2023 00:28 23,2 C 22,2 C 18,9 C 80 % 1008,8 hPa 0,0 l/m 0 min 0 min 0 W/m 19,3 km/h (3 Bft) 100,00 %
12.07.2023 00:30 23,1 C 22,2 C 18,9 C 81 % 1008,8 hPa 0,0 l/m 0 min 0 min 0 W/m 19,3 km/h (3 Bft) 100,00 %
12.07.2023 00:32 23,1 C 22,2 C 18,9 C 80 % 1008,9 hPa 0,0 l/m 0 min 0 min 0 W/m 19,3 km/h (3 Bft) 97,87 %
12.07.2023 00:34 22,9 C 22,2 C 18,9 C 80 % 1009,1 hPa 0,0 l/m 0 min 0 min 0 W/m 22,5 km/h (4 Bft) 93,62 %
12.07.2023 00:36 22,9 C 22,2 C 18,9 C 80 % 1009,1 hPa 0,0 l/m 0 min 0 min 0 W/m 9,7 km/h (2 Bft) 97,87 %
12.07.2023 00:38 22,9 C 22,2 C 18,9 C 80 % 1009,2 hPa 0,0 l/m 0 min 0 min 0 W/m 12,9 km/h (3 Bft) 95,83 %
12.07.2023 00:40 22,8 C 21,7 C 18,9 C 80 % 1009,2 hPa 0,0 l/m 0 min 0 min 0 W/m 19,3 km/h (3 Bft) 97,83 %
12.07.2023 00:42 22,7 C 21,7 C 18,3 C 80 % 1009,2 hPa 0,0 l/m 0 min 0 min 0 W/m 29,0 km/h (5 Bft) 97,87 %
12.07.2023 00:44 22,7 C 21,7 C 18,3 C 79 % 1009,3 hPa 0,0 l/m 0 min 0 min 0 W/m 16,1 km/h (3 Bft) 97,92 %
12.07.2023 00:46 22,6 C 21,7 C 18,3 C 78 % 1009,3 hPa 0,0 l/m 0 min 0 min 0 W/m 19,3 km/h (3 Bft) 97,87 %
12.07.2023 00:48 22,4 C 21,7 C 18,3 C 78 % 1009,3 hPa 0,0 l/m 0 min 0 min 0 W/m 9,7 km/h (2 Bft) 97,87 %
12.07.2023 00:50 22,3 C 21,1 C 18,3 C 77 % 1009,1 hPa 0,0 l/m 0 min 0 min 0 W/m 48,3 km/h (6 Bft) 95,74 %
12.07.2023 00:52 22,3 C 21,1 C 18,3 C 76 % 1009,1 hPa 0,0 l/m 0 min 0 min 0 W/m 19,3 km/h (3 Bft) 97,83 %
12.07.2023 00:54 22,2 C 21,1 C 17,8 C 76 % 1009,1 hPa 0,0 l/m 0 min 0 min 0 W/m 35,4 km/h (5 Bft) 97,87 %
12.07.2023 00:56 22,1 C 21,1 C 17,8 C 75 % 1009,0 hPa 0,0 l/m 0 min 0 min 0 W/m 22,5 km/h (4 Bft) 97,87 %
12.07.2023 00:58 22,1 C 21,1 C 17,8 C 75 % 1009,0 hPa 0,0 l/m 0 min 0 min 0 W/m 22,5 km/h (4 Bft) 95,74 %
12.07.2023 01:00 22,1 C 21,1 C 17,8 C 75 % 1009,1 hPa 0,0 l/m 0 min 0 min 0 W/m 22,5 km/h (4 Bft) 97,87 %
12.07.2023 01:02 22,0 C 21,1 C 17,8 C 75 % 1009,1 hPa 0,0 l/m 0 min 0 min 0 W/m 16,1 km/h (3 Bft) 93,62 %
12.07.2023 01:04 21,9 C 21,1 C 17,8 C 75 % 1009,1 hPa 0,0 l/m 0 min 0 min 0 W/m 16,1 km/h (3 Bft) 95,12 %
12.07.2023 01:07 21,9 C 21,1 C 17,8 C 75 % 1008,9 hPa 0,0 l/m 0 min 0 min 0 W/m 19,3 km/h (3 Bft) 96,15 %
12.07.2023 01:08 21,9 C 21,1 C 17,8 C 76 % 1008,9 hPa 0,0 l/m 0 min 0 min 0 W/m 9,7 km/h (2 Bft) 86,96 %
12.07.2023 01:10 21,9 C 21,1 C 17,8 C 76 % 1008,9 hPa 0,0 l/m 0 min 0 min 0 W/m 25,7 km/h (4 Bft) 97,14 %
12.07.2023 01:12 21,8 C 21,1 C 17,8 C 76 % 1009,0 hPa 0,0 l/m 0 min 0 min 0 W/m 16,1 km/h (3 Bft) 93,75 %
12.07.2023 01:14 21,8 C 20,6 C 17,8 C 76 % 1008,9 hPa 0,0 l/m 0 min 0 min 0 W/m 19,3 km/h (3 Bft) 93,62 %
12.07.2023 01:16 21,8 C 20,6 C 17,8 C 76 % 1008,8 hPa 0,0 l/m 0 min 0 min 0 W/m 22,5 km/h (4 Bft) 93,62 %
12.07.2023 01:18 21,7 C 20,6 C 17,8 C 76 % 1008,9 hPa 0,0 l/m 0 min 0 min 0 W/m 32,2 km/h (5 Bft) 93,62 %
12.07.2023 01:20 21,7 C 21,1 C 17,8 C 76 % 1009,1 hPa 0,0 l/m 0 min 0 min 0 W/m 19,3 km/h (3 Bft) 93,48 %
12.07.2023 01:22 21,7 C 21,1 C 17,8 C 76 % 1009,2 hPa 0,0 l/m 0 min 0 min 0 W/m 16,1 km/h (3 Bft) 96,00 %
12.07.2023 01:24 21,7 C 20,6 C 17,8 C 76 % 1009,2 hPa 0,0 l/m 0 min 0 min 0 W/m 12,9 km/h (3 Bft) 95,74 %
12.07.2023 01:26 21,6 C 20,6 C 17,8 C 76 % 1009,1 hPa 0,0 l/m 0 min 0 min 0 W/m 22,5 km/h (4 Bft) 95,74 %
12.07.2023 01:28 21,6 C 20,6 C 17,8 C 76 % 1009,2 hPa 0,0 l/m 0 min 0 min 0 W/m 16,1 km/h (3 Bft) 95,74 %
12.07.2023 01:30 21,6 C 20,6 C 17,8 C 76 % 1009,3 hPa 0,0 l/m 0 min 0 min 0 W/m 19,3 km/h (3 Bft) 95,65 %
12.07.2023 01:32 21,6 C 20,6 C 17,2 C 76 % 1009,3 hPa 0,0 l/m 0 min 0 min 0 W/m 16,1 km/h (3 Bft) 93,62 %
12.07.2023 01:34 21,6 C 20,6 C 17,2 C 76 % 1009,2 hPa 0,0 l/m 0 min 0 min 0 W/m 12,9 km/h (3 Bft) 95,74 %
12.07.2023 01:36 21,6 C 20,6 C 17,2 C 76 % 1009,1 hPa 0,0 l/m 0 min 0 min 0 W/m 9,7 km/h (2 Bft) 97,87 %
12.07.2023 01:38 21,5 C 20,6 C 17,2 C 76 % 1009,1 hPa 0,0 l/m 0 min 0 min 0 W/m 9,7 km/h (2 Bft) 97,87 %
12.07.2023 01:40 21,5 C 20,6 C 17,2 C 76 % 1009,0 hPa 0,0 l/m 0 min 0 min 0 W/m 9,7 km/h (2 Bft) 97,87 %
12.07.2023 01:42 21,5 C 20,6 C 17,2 C 77 % 1009,1 hPa 0,0 l/m 0 min 0 min 0 W/m 6,4 km/h (2 Bft) 95,74 %
12.07.2023 01:44 21,5 C 20,6 C 17,2 C 77 % 1009,2 hPa 0,0 l/m 0 min 0 min 0 W/m 6,4 km/h (2 Bft) 97,87 %
12.07.2023 01:46 21,4 C 20,6 C 17,2 C 77 % 1009,3 hPa 0,0 l/m 0 min 0 min 0 W/m 9,7 km/h (2 Bft) 97,87 %
12.07.2023 01:48 21,4 C 20,6 C 17,2 C 77 % 1009,2 hPa 0,0 l/m 0 min 0 min 0 W/m 6,4 km/h (2 Bft) 97,87 %
12.07.2023 01:50 21,4 C 20,6 C 17,2 C 77 % 1009,2 hPa 0,0 l/m 0 min 0 min 0 W/m 3,2 km/h (1 Bft) 95,65 %
12.07.2023 01:52 21,4 C 20,6 C 17,2 C 78 % 1009,2 hPa 0,0 l/m 0 min 0 min 0 W/m 6,4 km/h (2 Bft) 97,87 %
12.07.2023 01:54 21,4 C 20,6 C 17,2 C 78 % 1009,1 hPa 0,0 l/m 0 min 0 min 0 W/m 6,4 km/h (2 Bft) 97,87 %
12.07.2023 01:56 21,4 C 20,6 C 17,2 C 78 % 1009,1 hPa 0,0 l/m 0 min 2 min 0 W/m 3,2 km/h (1 Bft) 95,74 %
12.07.2023 01:58 21,4 C 20,6 C 17,2 C 79 % 1009,0 hPa 0,0 l/m 0 min 2 min 0 W/m 6,4 km/h (2 Bft) 97,87 %
12.07.2023 02:00 21,4 C 20,0 C 17,2 C 79 % 1009,0 hPa 0,0 l/m 0 min 2 min 0 W/m 6,4 km/h (2 Bft) 97,87 %
12.07.2023 02:02 21,3 C 20,0 C 16,7 C 80 % 1009,1 hPa 0,0 l/m 0 min 2 min 0 W/m 9,7 km/h (2 Bft) 95,74 %
12.07.2023 02:04 21,3 C 20,0 C 16,1 C 80 % 1009,1 hPa 0,0 l/m 0 min 2 min 0 W/m 6,4 km/h (2 Bft) 97,87 %
12.07.2023 02:06 21,2 C 19,4 C 16,1 C 81 % 1009,1 hPa 0,0 l/m 0 min 2 min 0 W/m 6,4 km/h (2 Bft) 100,00 %
12.07.2023 02:08 21,2 C 19,4 C 16,1 C 82 % 1009,1 hPa 0,0 l/m 0 min 0 min 0 W/m 6,4 km/h (2 Bft) 100,00 %
12.07.2023 02:10 21,1 C 19,4 C 15,6 C 82 % 1009,2 hPa 0,0 l/m 0 min 0 min 0 W/m 3,2 km/h (1 Bft) 100,00 %
12.07.2023 02:12 21,1 C 19,4 C 15,6 C 83 % 1009,2 hPa 0,0 l/m 0 min 0 min 0 W/m 3,2 km/h (1 Bft) 100,00 %
12.07.2023 02:14 21,1 C 19,4 C 16,1 C 84 % 1009,1 hPa 0,0 l/m 0 min 0 min 0 W/m 3,2 km/h (1 Bft) 100,00 %
12.07.2023 02:16 21,0 C 19,4 C 16,1 C 84 % 1009,1 hPa 0,0 l/m 0 min 0 min 0 W/m 3,2 km/h (1 Bft) 100,00 %
12.07.2023 02:18 20,9 C 19,4 C 16,1 C 84 % 1009,1 hPa 0,0 l/m 0 min 0 min 0 W/m 3,2 km/h (1 Bft) 100,00 %
12.07.2023 02:20 20,8 C 19,4 C 16,1 C 85 % 1009,2 hPa 0,0 l/m 0 min 0 min 0 W/m 3,2 km/h (1 Bft) 100,00 %
12.07.2023 02:22 20,8 C 19,4 C 16,1 C 85 % 1009,3 hPa 0,0 l/m 0 min 0 min 0 W/m 3,2 km/h (1 Bft) 100,00 %
12.07.2023 02:24 20,7 C 19,4 C 16,1 C 85 % 1009,2 hPa 0,0 l/m 0 min 0 min 0 W/m 3,2 km/h (1 Bft) 100,00 %
12.07.2023 02:26 20,7 C 19,4 C 16,1 C 86 % 1009,2 hPa 0,0 l/m 0 min 0 min 0 W/m 3,2 km/h (1 Bft) 100,00 %
12.07.2023 02:28 20,6 C 18,9 C 16,1 C 85 % 1009,3 hPa 0,0 l/m 0 min 0 min 0 W/m 6,4 km/h (2 Bft) 100,00 %
12.07.2023 02:30 20,6 C 19,4 C 16,1 C 85 % 1009,4 hPa 0,0 l/m 0 min 0 min 0 W/m 0,0 km/h (0 Bft) 100,00 %
12.07.2023 02:32 20,6 C 19,4 C 16,1 C 86 % 1009,4 hPa 0,0 l/m 0 min 0 min 0 W/m 0,0 km/h (0 Bft) 100,00 %
12.07.2023 02:34 20,6 C 19,4 C 16,1 C 86 % 1009,3 hPa 0,0 l/m 0 min 0 min 0 W/m 0,0 km/h (0 Bft) 100,00 %
12.07.2023 02:36 20,6 C 18,9 C 16,1 C 86 % 1009,2 hPa 0,0 l/m 0 min 0 min 0 W/m 0,0 km/h (0 Bft) 100,00 %
12.07.2023 02:38 20,5 C 18,9 C 16,1 C 86 % 1009,2 hPa 0,0 l/m 0 min 2 min 0 W/m 0,0 km/h (0 Bft) 100,00 %
12.07.2023 02:40 20,5 C 19,4 C 15,6 C 87 % 1009,2 hPa 0,0 l/m 0 min 2 min 0 W/m 0,0 km/h (0 Bft) 100,00 %
12.07.2023 02:42 20,5 C 19,4 C 15,6 C 87 % 1009,2 hPa 0,0 l/m 0 min 2 min 0 W/m 0,0 km/h (0 Bft) 100,00 %
12.07.2023 02:44 20,5 C 19,4 C 15,0 C 87 % 1009,3 hPa 0,2 l/m 0 min 2 min 0 W/m 0,0 km/h (0 Bft) 100,00 %
12.07.2023 02:46 20,4 C 18,9 C 15,0 C 87 % 1009,4 hPa 0,0 l/m 0 min 2 min 0 W/m 0,0 km/h (0 Bft) 100,00 %
12.07.2023 02:48 20,5 C 18,9 C 14,4 C 88 % 1009,2 hPa 0,0 l/m 0 min 2 min 0 W/m 0,0 km/h (0 Bft) 100,00 %
12.07.2023 02:50 20,4 C 18,9 C 15,0 C 88 % 1009,2 hPa 0,2 l/m 0 min 2 min 0 W/m 0,0 km/h (0 Bft) 100,00 %
12.07.2023 02:52 20,4 C 18,9 C 15,0 C 88 % 1009,3 hPa 0,0 l/m 0 min 2 min 0 W/m 0,0 km/h (0 Bft) 97,87 %
12.07.2023 02:54 20,4 C 18,9 C 15,0 C 88 % 1009,2 hPa 0,0 l/m 0 min 2 min 0 W/m 0,0 km/h (0 Bft) 95,74 %
12.07.2023 02:56 20,4 C 18,9 C 15,0 C 89 % 1009,2 hPa 0,2 l/m 0 min 2 min 0 W/m 0,0 km/h (0 Bft) 97,87 %
12.07.2023 02:58 20,4 C 18,9 C 15,0 C 89 % 1009,1 hPa 0,0 l/m 0 min 0 min 0 W/m 0,0 km/h (0 Bft) 97,87 %
12.07.2023 03:00 20,4 C 18,9 C 15,0 C 89 % 1009,1 hPa 0,0 l/m 0 min 0 min 0 W/m 0,0 km/h (0 Bft) 97,83 %
12.07.2023 03:02 20,4 C 18,9 C 15,0 C 89 % 1008,9 hPa 0,0 l/m 0 min 0 min 0 W/m 0,0 km/h (0 Bft) 95,83 %
12.07.2023 03:04 20,3 C 18,9 C 15,0 C 90 % 1008,6 hPa 0,0 l/m 0 min 0 min 0 W/m 0,0 km/h (0 Bft) 97,96 %
12.07.2023 03:06 20,3 C 18,9 C 15,0 C 90 % 1008,5 hPa 0,0 l/m 0 min 0 min 0 W/m 0,0 km/h (0 Bft) 93,62 %
12.07.2023 03:08 20,3 C 18,9 C 14,4 C 90 % 1008,6 hPa 0,0 l/m 0 min 0 min 0 W/m 0,0 km/h (0 Bft) 97,87 %
12.07.2023 03:10 20,3 C 18,9 C 15,0 C 90 % 1008,7 hPa 0,0 l/m 0 min 0 min 0 W/m 0,0 km/h (0 Bft) 97,87 %
12.07.2023 03:12 20,3 C 18,9 C 15,0 C 90 % 1008,7 hPa 0,0 l/m 0 min 0 min 0 W/m 0,0 km/h (0 Bft) 100,00 %
12.07.2023 03:14 20,2 C 18,9 C 14,4 C 90 % 1008,8 hPa 0,0 l/m 0 min 0 min 0 W/m 0,0 km/h (0 Bft) 100,00 %
12.07.2023 03:16 20,2 C 18,9 C 14,4 C 90 % 1009,1 hPa 0,0 l/m 0 min 0 min 0 W/m 6,4 km/h (2 Bft) 93,62 %
12.07.2023 03:18 20,1 C 18,9 C 15,0 C 90 % 1009,2 hPa 0,0 l/m 0 min 0 min 0 W/m 3,2 km/h (1 Bft) 97,87 %
12.07.2023 03:20 20,1 C 18,9 C 15,0 C 90 % 1009,2 hPa 0,0 l/m 0 min 0 min 0 W/m 3,2 km/h (1 Bft) 97,87 %
12.07.2023 03:22 20,0 C 18,9 C 14,4 C 90 % 1009,4 hPa 0,0 l/m 0 min 0 min 0 W/m 3,2 km/h (1 Bft) 100,00 %
12.07.2023 03:24 20,0 C 18,9 C 14,4 C 90 % 1009,5 hPa 0,0 l/m 0 min 0 min 0 W/m 3,2 km/h (1 Bft) 100,00 %
12.07.2023 03:26 19,9 C 18,9 C 14,4 C 90 % 1009,5 hPa 0,0 l/m 0 min 0 min 0 W/m 3,2 km/h (1 Bft) 97,87 %
12.07.2023 03:28 19,9 C 18,9 C 15,0 C 90 % 1009,3 hPa 0,0 l/m 0 min 0 min 0 W/m 3,2 km/h (1 Bft) 97,87 %
12.07.2023 03:30 19,9 C 18,9 C 14,4 C 91 % 1009,2 hPa 0,0 l/m 0 min 0 min 0 W/m 3,2 km/h (1 Bft) 97,87 %
12.07.2023 03:32 19,9 C 18,9 C 15,0 C 91 % 1009,5 hPa 0,0 l/m 0 min 0 min 0 W/m 3,2 km/h (1 Bft) 95,74 %
12.07.2023 03:34 19,9 C 18,9 C 14,4 C 91 % 1009,7 hPa 0,0 l/m 0 min 0 min 0 W/m 6,4 km/h (2 Bft) 97,87 %
12.07.2023 03:36 19,8 C 18,9 C 14,4 C 91 % 1009,8 hPa 0,0 l/m 0 min 0 min 0 W/m 3,2 km/h (1 Bft) 98,18 %
12.07.2023 03:38 19,8 C 18,9 C 14,4 C 91 % 1009,7 hPa 0,0 l/m 0 min 0 min 0 W/m 6,4 km/h (2 Bft) 97,83 %
12.07.2023 03:40 19,8 C 18,9 C 14,4 C 91 % 1009,8 hPa 0,0 l/m 0 min 0 min 0 W/m 3,2 km/h (1 Bft) 97,87 %
12.07.2023 03:42 19,8 C 18,9 C 14,4 C 91 % 1009,8 hPa 0,0 l/m 0 min 0 min 0 W/m 3,2 km/h (1 Bft) 97,87 %
12.07.2023 03:44 19,8 C 18,9 C 14,4 C 91 % 1009,8 hPa 0,0 l/m 0 min 0 min 0 W/m 12,9 km/h (3 Bft) 93,62 %
12.07.2023 03:46 19,8 C 18,9 C 15,0 C 91 % 1009,9 hPa 0,0 l/m 0 min 0 min 0 W/m 3,2 km/h (1 Bft) 95,83 %
12.07.2023 03:48 19,7 C 18,9 C 14,4 C 91 % 1009,9 hPa 0,0 l/m 0 min 0 min 0 W/m 3,2 km/h (1 Bft) 97,87 %
12.07.2023 03:50 19,7 C 18,9 C 14,4 C 91 % 1009,9 hPa 0,0 l/m 0 min 0 min 0 W/m 9,7 km/h (2 Bft) 95,74 %
12.07.2023 03:52 19,7 C 18,9 C 14,4 C 91 % 1009,8 hPa 0,0 l/m 0 min 0 min 0 W/m 3,2 km/h (1 Bft) 93,48 %
12.07.2023 03:54 19,7 C 18,9 C 14,4 C 91 % 1009,9 hPa 0,0 l/m 0 min 0 min 0 W/m 3,2 km/h (1 Bft) 96,00 %
12.07.2023 03:56 19,7 C 18,9 C 14,4 C 91 % 1009,8 hPa 0,0 l/m 0 min 0 min 0 W/m 3,2 km/h (1 Bft) 97,14 %
12.07.2023 03:58 19,7 C 18,9 C 14,4 C 91 % 1009,8 hPa 0,0 l/m 0 min 0 min 0 W/m 6,4 km/h (2 Bft) 97,87 %
12.07.2023 04:00 19,6 C 18,9 C 14,4 C 91 % 1009,9 hPa 0,0 l/m 0 min 2 min 0 W/m 3,2 km/h (1 Bft) 97,83 %
12.07.2023 04:05 19,6 C 18,9 C 14,4 C 91 % 1009,9 hPa 0,0 l/m 0 min 5 min 0 W/m 6,4 km/h (2 Bft) 92,31 %
12.07.2023 04:06 19,6 C 18,9 C 14,4 C 91 % 1009,8 hPa 0,2 l/m 0 min 1 min 0 W/m 3,2 km/h (1 Bft) 86,96 %
12.07.2023 04:12 19,7 C 18,9 C 15,0 C 91 % 1010,1 hPa 0,2 l/m 0 min 0 min 0 W/m 6,4 km/h (2 Bft) 505,36 %
12.07.2023 04:13 19,7 C 18,3 C 15,0 C 92 % 1010,0 hPa 0,0 l/m 0 min 0 min 0 W/m 16,1 km/h (3 Bft) 95,83 %
12.07.2023 04:15 19,5 C 18,3 C 14,4 C 91 % 1010,1 hPa 0,0 l/m 0 min 0 min 0 W/m 16,1 km/h (3 Bft) 97,37 %
12.07.2023 04:18 19,4 C 18,3 C 14,4 C 91 % 1010,0 hPa 0,0 l/m 0 min 0 min 0 W/m 9,7 km/h (2 Bft) 100,00 %
12.07.2023 04:20 19,4 C 18,3 C 13,9 C 91 % 1009,8 hPa 0,0 l/m 0 min 0 min 0 W/m 19,3 km/h (3 Bft) 95,74 %
12.07.2023 04:22 19,3 C 18,3 C 13,9 C 91 % 1009,8 hPa 0,0 l/m 0 min 0 min 0 W/m 16,1 km/h (3 Bft) 95,74 %
12.07.2023 04:24 19,2 C 18,3 C 13,9 C 91 % 1010,1 hPa 0,0 l/m 0 min 0 min 0 W/m 12,9 km/h (3 Bft) 97,87 %
12.07.2023 04:26 19,2 C 18,3 C 13,9 C 90 % 1010,1 hPa 0,0 l/m 0 min 0 min 0 W/m 12,9 km/h (3 Bft) 97,87 %
12.07.2023 04:28 19,1 C 18,3 C 13,9 C 91 % 1010,8 hPa 0,0 l/m 0 min 2 min 0 W/m 16,1 km/h (3 Bft) 97,83 %
12.07.2023 04:30 19,1 C 17,8 C 13,9 C 91 % 1010,8 hPa 0,2 l/m 0 min 2 min 0 W/m 12,9 km/h (3 Bft) 97,87 %
12.07.2023 04:32 19,1 C 17,8 C 13,9 C 91 % 1010,7 hPa 0,2 l/m 0 min 2 min 0 W/m 12,9 km/h (3 Bft) 97,87 %
12.07.2023 04:34 19,1 C 17,8 C 13,9 C 91 % 1010,6 hPa 0,0 l/m 0 min 2 min 0 W/m 6,4 km/h (2 Bft) 94,29 %
12.07.2023 04:36 19,0 C 17,8 C 13,9 C 91 % 1010,4 hPa 0,0 l/m 0 min 2 min 0 W/m 12,9 km/h (3 Bft) 96,61 %
12.07.2023 04:38 18,9 C 17,8 C 13,9 C 91 % 1010,1 hPa 0,0 l/m 0 min 0 min 0 W/m 22,5 km/h (4 Bft) 95,74 %
12.07.2023 04:40 18,8 C 17,2 C 13,9 C 91 % 1009,9 hPa 0,0 l/m 0 min 2 min 0 W/m 16,1 km/h (3 Bft) 95,74 %
12.07.2023 04:42 18,7 C 17,2 C 13,3 C 91 % 1010,1 hPa 0,0 l/m 0 min 2 min 0 W/m 16,1 km/h (3 Bft) 95,74 %
12.07.2023 04:44 18,6 C 17,2 C 13,3 C 91 % 1010,3 hPa 0,0 l/m 0 min 0 min 0 W/m 12,9 km/h (3 Bft) 93,48 %
12.07.2023 04:46 18,5 C 17,2 C 13,3 C 91 % 1010,4 hPa 0,0 l/m 0 min 0 min 0 W/m 12,9 km/h (3 Bft) 97,87 %
12.07.2023 04:48 18,4 C 17,2 C 12,8 C 91 % 1010,3 hPa 0,0 l/m 0 min 0 min 0 W/m 29,0 km/h (5 Bft) 97,14 %
12.07.2023 04:50 18,3 C 17,2 C 12,8 C 90 % 1010,4 hPa 0,0 l/m 0 min 0 min 0 W/m 22,5 km/h (4 Bft) 96,61 %
12.07.2023 04:52 18,2 C 17,2 C 12,8 C 90 % 1010,6 hPa 0,0 l/m 0 min 0 min 0 W/m 19,3 km/h (3 Bft) 94,29 %
12.07.2023 04:54 18,2 C 17,2 C 12,8 C 91 % 1010,8 hPa 0,0 l/m 0 min 2 min 0 W/m 12,9 km/h (3 Bft) 98,31 %
12.07.2023 04:56 18,1 C 17,2 C 12,8 C 91 % 1010,9 hPa 0,2 l/m 0 min 2 min 0 W/m 12,9 km/h (3 Bft) 94,29 %
12.07.2023 04:58 18,1 C 16,7 C 12,8 C 91 % 1011,1 hPa 0,0 l/m 0 min 2 min 0 W/m 16,1 km/h (3 Bft) 96,55 %
12.07.2023 05:00 18,0 C 16,7 C 12,8 C 91 % 1011,3 hPa 0,4 l/m 0 min 2 min 0 W/m 19,3 km/h (3 Bft) 97,14 %
12.07.2023 05:02 18,0 C 16,1 C 12,8 C 91 % 1010,6 hPa 0,8 l/m 0 min 2 min 0 W/m 12,9 km/h (3 Bft) 98,31 %
12.07.2023 05:04 17,9 C 16,1 C 12,8 C 91 % 1010,5 hPa 0,4 l/m 0 min 2 min 0 W/m 12,9 km/h (3 Bft) 97,22 %
12.07.2023 05:06 17,9 C 16,1 C 13,3 C 92 % 1010,6 hPa 0,6 l/m 0 min 2 min 0 W/m 6,4 km/h (2 Bft) 98,31 %
12.07.2023 05:08 17,8 C 16,1 C 12,8 C 92 % 1010,6 hPa 0,2 l/m 0 min 2 min 0 W/m 9,7 km/h (2 Bft) 100,00 %
12.07.2023 05:10 17,8 C 16,1 C 13,3 C 92 % 1010,6 hPa 0,0 l/m 0 min 2 min 0 W/m 6,4 km/h (2 Bft) 97,87 %
12.07.2023 05:12 17,8 C 16,1 C 12,8 C 92 % 1010,5 hPa 0,0 l/m 0 min 2 min 0 W/m 3,2 km/h (1 Bft) 100,00 %
12.07.2023 05:14 17,8 C 16,1 C 12,8 C 92 % 1010,5 hPa 0,0 l/m 0 min 2 min 0 W/m 3,2 km/h (1 Bft) 100,00 %
12.07.2023 05:16 17,8 C 16,1 C 13,3 C 93 % 1010,5 hPa 0,2 l/m 0 min 2 min 0 W/m 3,2 km/h (1 Bft) 100,00 %
12.07.2023 05:18 17,8 C 16,1 C 13,3 C 93 % 1010,6 hPa 0,0 l/m 0 min 2 min 0 W/m 3,2 km/h (1 Bft) 100,00 %
12.07.2023 05:20 17,7 C 16,1 C 13,3 C 93 % 1010,7 hPa 0,0 l/m 0 min 2 min 0 W/m 3,2 km/h (1 Bft) 97,87 %
12.07.2023 05:22 17,7 C 16,1 C 13,3 C 93 % 1010,7 hPa 0,0 l/m 0 min 2 min 0 W/m 6,4 km/h (2 Bft) 97,87 %
12.07.2023 05:24 17,7 C 16,1 C 12,8 C 93 % 1010,8 hPa 0,0 l/m 0 min 2 min 0 W/m 6,4 km/h (2 Bft) 97,87 %
12.07.2023 05:26 17,7 C 16,1 C 12,8 C 93 % 1010,8 hPa 0,0 l/m 0 min 2 min 0 W/m 9,7 km/h (2 Bft) 100,00 %
12.07.2023 05:28 17,6 C 16,1 C 13,3 C 93 % 1010,6 hPa 0,0 l/m 0 min 2 min 0 W/m 6,4 km/h (2 Bft) 100,00 %
12.07.2023 05:30 17,6 C 16,1 C 13,3 C 94 % 1010,6 hPa 0,0 l/m 0 min 2 min 0 W/m 3,2 km/h (1 Bft) 100,00 %
12.07.2023 05:32 17,6 C 16,1 C 12,8 C 94 % 1010,3 hPa 0,0 l/m 0 min 2 min 0 W/m 6,4 km/h (2 Bft) 100,00 %
12.07.2023 05:34 17,6 C 16,1 C 12,8 C 94 % 1010,1 hPa 0,0 l/m 0 min 2 min 0 W/m 3,2 km/h (1 Bft) 100,00 %
12.07.2023 05:36 17,6 C 16,1 C 12,8 C 94 % 1010,0 hPa 0,2 l/m 0 min 2 min 0 W/m 3,2 km/h (1 Bft) 100,00 %
12.07.2023 05:38 17,6 C 16,1 C 13,3 C 94 % 1010,1 hPa 0,0 l/m 0 min 2 min 0 W/m 6,4 km/h (2 Bft) 97,83 %
12.07.2023 05:40 17,6 C 16,1 C 13,3 C 94 % 1010,1 hPa 0,0 l/m 0 min 0 min 0 W/m 12,9 km/h (3 Bft) 100,00 %
12.07.2023 05:42 17,6 C 16,1 C 12,8 C 94 % 1010,1 hPa 0,0 l/m 0 min 0 min 0 W/m 9,7 km/h (2 Bft) 100,00 %
12.07.2023 05:44 17,5 C 16,1 C 12,8 C 94 % 1010,2 hPa 0,0 l/m 0 min 0 min 0 W/m 3,2 km/h (1 Bft) 100,00 %
12.07.2023 05:46 17,4 C 16,1 C 12,8 C 94 % 1010,2 hPa 0,0 l/m 0 min 2 min 0 W/m 3,2 km/h (1 Bft) 100,00 %
12.07.2023 05:48 17,4 C 16,1 C 13,3 C 94 % 1010,2 hPa 0,0 l/m 0 min 0 min 0 W/m 3,2 km/h (1 Bft) 100,00 %
12.07.2023 05:50 17,4 C 16,1 C 13,3 C 94 % 1010,3 hPa 0,0 l/m 0 min 0 min 0 W/m 3,2 km/h (1 Bft) 100,00 %
12.07.2023 05:52 17,4 C 16,1 C 12,8 C 94 % 1010,3 hPa 0,0 l/m 0 min 0 min 0 W/m 6,4 km/h (2 Bft) 97,87 %
12.07.2023 05:54 17,4 C 16,1 C 13,3 C 94 % 1010,4 hPa 0,0 l/m 0 min 2 min 0 W/m 9,7 km/h (2 Bft) 97,87 %
12.07.2023 05:56 17,4 C 16,1 C 12,8 C 94 % 1010,3 hPa 0,0 l/m 0 min 0 min 0 W/m 6,4 km/h (2 Bft) 100,00 %
12.07.2023 05:58 17,3 C 16,1 C 12,8 C 95 % 1010,3 hPa 0,0 l/m 0 min 0 min 0 W/m 3,2 km/h (1 Bft) 100,00 %
12.07.2023 06:00 17,3 C 16,1 C 12,8 C 95 % 1010,2 hPa 0,0 l/m 0 min 0 min 0 W/m 3,2 km/h (1 Bft) 100,00 %
12.07.2023 06:02 17,2 C 16,1 C 12,8 C 95 % 1010,1 hPa 0,0 l/m 0 min 0 min 0 W/m 3,2 km/h (1 Bft) 100,00 %
12.07.2023 06:04 17,2 C 16,1 C 12,8 C 95 % 1010,2 hPa 0,0 l/m 0 min 2 min 6 W/m 6,4 km/h (2 Bft) 100,00 %
12.07.2023 06:07 17,2 C 16,1 C 12,8 C 95 % 1010,5 hPa 0,0 l/m 0 min 3 min 8 W/m 12,9 km/h (3 Bft) 100,00 %
12.07.2023 06:08 17,2 C 16,1 C 12,8 C 95 % 1010,5 hPa 0,0 l/m 0 min 1 min 7 W/m 6,4 km/h (2 Bft) 100,00 %
12.07.2023 06:12 17,2 C 16,1 C 12,8 C 95 % 1010,4 hPa 0,0 l/m 0 min 0 min 8 W/m 3,2 km/h (1 Bft) 100,00 %
12.07.2023 06:14 17,1 C 16,1 C 12,8 C 95 % 1010,5 hPa 0,0 l/m 0 min 0 min 10 W/m 6,4 km/h (2 Bft) 100,00 %
12.07.2023 06:16 17,1 C 16,1 C 12,8 C 95 % 1010,4 hPa 0,0 l/m 0 min 0 min 13 W/m 6,4 km/h (2 Bft) 100,00 %
12.07.2023 06:18 17,1 C 16,1 C 12,8 C 95 % 1010,5 hPa 0,0 l/m 0 min 0 min 14 W/m 3,2 km/h (1 Bft) 100,00 %
12.07.2023 06:20 17,1 C 16,1 C 12,8 C 95 % 1010,5 hPa 0,0 l/m 0 min 0 min 14 W/m 9,7 km/h (2 Bft) 100,00 %
12.07.2023 06:22 17,1 C 16,1 C 12,8 C 95 % 1010,5 hPa 0,0 l/m 0 min 0 min 15 W/m 9,7 km/h (2 Bft) 100,00 %
12.07.2023 06:24 17,1 C 16,1 C 12,8 C 95 % 1010,5 hPa 0,0 l/m 0 min 0 min 17 W/m 6,4 km/h (2 Bft) 97,37 %
12.07.2023 06:26 17,1 C 16,1 C 12,8 C 95 % 1010,5 hPa 0,0 l/m 0 min 0 min 21 W/m 6,4 km/h (2 Bft) 97,87 %
12.07.2023 06:28 17,1 C 16,1 C 12,8 C 95 % 1010,5 hPa 0,0 l/m 0 min 0 min 26 W/m 12,9 km/h (3 Bft) 97,83 %
12.07.2023 06:30 17,1 C 16,1 C 12,8 C 95 % 1010,5 hPa 0,0 l/m 0 min 0 min 28 W/m 6,4 km/h (2 Bft) 97,87 %
12.07.2023 06:32 17,0 C 16,1 C 12,8 C 95 % 1010,6 hPa 0,0 l/m 0 min 0 min 28 W/m 6,4 km/h (2 Bft) 93,62 %
12.07.2023 06:34 17,0 C 16,1 C 12,8 C 95 % 1010,6 hPa 0,0 l/m 0 min 0 min 26 W/m 9,7 km/h (2 Bft) 100,00 %
12.07.2023 06:36 17,1 C 16,1 C 12,8 C 96 % 1010,6 hPa 0,0 l/m 0 min 0 min 25 W/m 3,2 km/h (1 Bft) 97,87 %
12.07.2023 06:38 17,0 C 16,1 C 12,8 C 96 % 1010,6 hPa 0,0 l/m 0 min 0 min 25 W/m 9,7 km/h (2 Bft) 93,62 %
12.07.2023 06:40 17,0 C 16,1 C 12,8 C 96 % 1010,5 hPa 0,0 l/m 0 min 0 min 22 W/m 9,7 km/h (2 Bft) 93,48 %
12.07.2023 06:42 17,0 C 16,1 C 12,8 C 96 % 1010,6 hPa 0,0 l/m 0 min 0 min 28 W/m 9,7 km/h (2 Bft) 93,62 %
12.07.2023 06:46 16,9 C 16,1 C 12,8 C 96 % 1010,6 hPa 0,0 l/m 0 min 0 min 50 W/m 3,2 km/h (1 Bft) 98,10 %
12.07.2023 06:48 16,9 C 16,1 C 12,8 C 96 % 1010,7 hPa 0,0 l/m 0 min 0 min 52 W/m 3,2 km/h (1 Bft) 100,00 %
12.07.2023 06:50 16,9 C 16,1 C 12,8 C 96 % 1010,7 hPa 0,0 l/m 0 min 0 min 45 W/m 6,4 km/h (2 Bft) 95,74 %
12.07.2023 06:52 16,9 C 16,1 C 12,8 C 96 % 1010,6 hPa 0,0 l/m 0 min 0 min 45 W/m 12,9 km/h (3 Bft) 93,48 %
12.07.2023 06:54 16,9 C 16,7 C 12,8 C 96 % 1010,7 hPa 0,0 l/m 0 min 0 min 40 W/m 6,4 km/h (2 Bft) 89,36 %
12.07.2023 06:56 16,9 C 16,7 C 12,8 C 96 % 1010,7 hPa 0,0 l/m 0 min 0 min 35 W/m 9,7 km/h (2 Bft) 93,62 %
12.07.2023 06:58 16,9 C 16,7 C 12,8 C 96 % 1010,7 hPa 0,0 l/m 0 min 0 min 37 W/m 12,9 km/h (3 Bft) 93,62 %
12.07.2023 07:00 17,0 C 16,7 C 12,8 C 96 % 1010,7 hPa 0,0 l/m 0 min 0 min 35 W/m 16,1 km/h (3 Bft) 97,87 %
12.07.2023 07:02 17,0 C 16,7 C 12,8 C 96 % 1010,8 hPa 0,0 l/m 0 min 0 min 24 W/m 12,9 km/h (3 Bft) 95,74 %
12.07.2023 07:04 16,9 C 16,7 C 12,8 C 96 % 1010,8 hPa 0,0 l/m 0 min 0 min 16 W/m 12,9 km/h (3 Bft) 95,65 %
12.07.2023 07:06 16,9 C 16,7 C 12,8 C 96 % 1010,9 hPa 0,0 l/m 0 min 0 min 18 W/m 16,1 km/h (3 Bft) 93,62 %
12.07.2023 07:08 16,9 C 16,7 C 12,8 C 96 % 1010,9 hPa 0,0 l/m 0 min 0 min 20 W/m 16,1 km/h (3 Bft) 95,74 %
12.07.2023 07:10 16,9 C 16,7 C 12,8 C 95 % 1010,9 hPa 0,0 l/m 0 min 0 min 24 W/m 16,1 km/h (3 Bft) 95,74 %
12.07.2023 07:12 16,9 C 16,7 C 12,8 C 95 % 1010,9 hPa 0,0 l/m 0 min 0 min 29 W/m 6,4 km/h (2 Bft) 95,74 %
12.07.2023 07:14 16,9 C 16,7 C 12,8 C 95 % 1010,9 hPa 0,0 l/m 0 min 0 min 28 W/m 9,7 km/h (2 Bft) 93,62 %
12.07.2023 07:16 16,9 C 16,7 C 12,8 C 96 % 1011,0 hPa 0,0 l/m 0 min 0 min 25 W/m 12,9 km/h (3 Bft) 93,48 %
12.07.2023 07:18 16,9 C 16,7 C 12,8 C 96 % 1011,0 hPa 0,0 l/m 0 min 0 min 24 W/m 9,7 km/h (2 Bft) 95,74 %
12.07.2023 07:20 16,9 C 16,7 C 12,8 C 96 % 1011,0 hPa 0,0 l/m 0 min 0 min 22 W/m 9,7 km/h (2 Bft) 95,74 %
12.07.2023 07:22 17,0 C 16,7 C 12,8 C 96 % 1011,1 hPa 0,0 l/m 0 min 0 min 22 W/m 16,1 km/h (3 Bft) 96,00 %
12.07.2023 07:24 17,0 C 16,7 C 12,8 C 96 % 1011,1 hPa 0,0 l/m 0 min 0 min 24 W/m 3,2 km/h (1 Bft) 95,83 %
12.07.2023 07:26 17,1 C 16,7 C 12,8 C 96 % 1011,1 hPa 0,0 l/m 0 min 0 min 16 W/m 9,7 km/h (2 Bft) 95,74 %
12.07.2023 07:28 17,1 C 16,7 C 12,8 C 96 % 1011,2 hPa 0,0 l/m 0 min 0 min 16 W/m 6,4 km/h (2 Bft) 93,62 %
12.07.2023 07:30 17,1 C 16,7 C 12,8 C 96 % 1011,2 hPa 0,0 l/m 0 min 0 min 16 W/m 6,4 km/h (2 Bft) 97,87 %
12.07.2023 07:32 17,2 C 16,7 C 12,8 C 96 % 1011,3 hPa 0,0 l/m 0 min 0 min 24 W/m 9,7 km/h (2 Bft) 100,00 %
12.07.2023 07:34 17,1 C 16,7 C 12,8 C 96 % 1011,4 hPa 0,0 l/m 0 min 0 min 44 W/m 12,9 km/h (3 Bft) 100,00 %
12.07.2023 07:36 17,1 C 16,7 C 12,8 C 95 % 1011,4 hPa 0,0 l/m 0 min 0 min 37 W/m 6,4 km/h (2 Bft) 100,00 %
12.07.2023 07:38 17,2 C 16,7 C 12,8 C 95 % 1011,5 hPa 0,0 l/m 0 min 0 min 28 W/m 12,9 km/h (3 Bft) 100,00 %
12.07.2023 07:40 17,1 C 16,7 C 12,8 C 95 % 1011,4 hPa 0,0 l/m 0 min 0 min 28 W/m 3,2 km/h (1 Bft) 100,00 %
12.07.2023 07:42 17,1 C 16,7 C 12,8 C 95 % 1011,5 hPa 0,0 l/m 0 min 0 min 31 W/m 16,1 km/h (3 Bft) 100,00 %
12.07.2023 07:44 17,1 C 16,7 C 12,8 C 95 % 1011,5 hPa 0,0 l/m 0 min 0 min 38 W/m 12,9 km/h (3 Bft) 100,00 %
12.07.2023 07:46 17,1 C 16,7 C 12,8 C 95 % 1011,6 hPa 0,0 l/m 0 min 0 min 22 W/m 9,7 km/h (2 Bft) 97,87 %
12.07.2023 07:48 17,1 C 16,7 C 12,8 C 95 % 1011,6 hPa 0,0 l/m 0 min 0 min 18 W/m 16,1 km/h (3 Bft) 100,00 %
12.07.2023 07:50 17,1 C 16,7 C 12,8 C 95 % 1011,7 hPa 0,0 l/m 0 min 0 min 24 W/m 12,9 km/h (3 Bft) 100,00 %
12.07.2023 07:52 17,1 C 16,7 C 12,8 C 95 % 1011,7 hPa 0,0 l/m 0 min 0 min 50 W/m 22,5 km/h (4 Bft) 100,00 %
12.07.2023 07:54 17,1 C 16,7 C 12,8 C 95 % 1011,8 hPa 0,0 l/m 0 min 0 min 83 W/m 19,3 km/h (3 Bft) 100,00 %
12.07.2023 07:56 17,1 C 16,7 C 12,8 C 95 % 1011,8 hPa 0,0 l/m 0 min 2 min 95 W/m 12,9 km/h (3 Bft) 100,00 %
12.07.2023 07:58 17,1 C 16,7 C 12,8 C 95 % 1011,9 hPa 0,0 l/m 0 min 0 min 108 W/m 19,3 km/h (3 Bft) 100,00 %
12.07.2023 08:00 17,1 C 16,7 C 12,8 C 95 % 1011,9 hPa 0,0 l/m 0 min 0 min 84 W/m 12,9 km/h (3 Bft) 100,00 %
12.07.2023 08:02 17,2 C 16,7 C 12,8 C 95 % 1011,9 hPa 0,0 l/m 0 min 0 min 90 W/m 16,1 km/h (3 Bft) 100,00 %
12.07.2023 08:04 17,1 C 16,7 C 12,8 C 95 % 1011,9 hPa 0,0 l/m 0 min 0 min 66 W/m 12,9 km/h (3 Bft) 97,92 %
12.07.2023 08:06 17,1 C 16,7 C 12,8 C 95 % 1012,0 hPa 0,0 l/m 0 min 0 min 65 W/m 9,7 km/h (2 Bft) 100,00 %
12.07.2023 08:08 17,1 C 16,7 C 12,8 C 95 % 1011,9 hPa 0,0 l/m 0 min 0 min 59 W/m 6,4 km/h (2 Bft) 100,00 %
12.07.2023 08:10 17,1 C 16,7 C 12,8 C 95 % 1011,9 hPa 0,0 l/m 0 min 0 min 72 W/m 6,4 km/h (2 Bft) 97,87 %
12.07.2023 08:12 17,1 C 16,7 C 12,8 C 95 % 1012,0 hPa 0,0 l/m 0 min 0 min 92 W/m 6,4 km/h (2 Bft) 100,00 %
12.07.2023 08:14 17,2 C 17,2 C 12,8 C 95 % 1012,0 hPa 0,0 l/m 0 min 0 min 140 W/m 3,2 km/h (1 Bft) 95,74 %
12.07.2023 08:16 17,2 C 18,3 C 13,3 C 95 % 1012,0 hPa 0,0 l/m 0 min 0 min 151 W/m 9,7 km/h (2 Bft) 95,65 %
12.07.2023 08:18 17,3 C 18,9 C 12,8 C 95 % 1012,0 hPa 0,0 l/m 2 min 0 min 208 W/m 16,1 km/h (3 Bft) 95,74 %
12.07.2023 08:20 17,3 C 18,9 C 12,8 C 95 % 1012,0 hPa 0,0 l/m 2 min 0 min 193 W/m 9,7 km/h (2 Bft) 97,87 %
12.07.2023 08:22 17,4 C 18,9 C 13,3 C 95 % 1012,0 hPa 0,0 l/m 2 min 0 min 256 W/m 9,7 km/h (2 Bft) 97,87 %
12.07.2023 08:24 17,4 C 18,3 C 13,3 C 95 % 1012,1 hPa 0,0 l/m 0 min 0 min 119 W/m 9,7 km/h (2 Bft) 97,87 %
12.07.2023 08:26 17,5 C 18,9 C 12,8 C 95 % 1012,0 hPa 0,0 l/m 2 min 0 min 199 W/m 6,4 km/h (2 Bft) 97,87 %
12.07.2023 08:28 17,5 C 19,4 C 13,3 C 95 % 1012,1 hPa 0,0 l/m 2 min 0 min 230 W/m 6,4 km/h (2 Bft) 97,83 %
12.07.2023 08:30 17,6 C 20,6 C 12,8 C 95 % 1012,0 hPa 0,0 l/m 2 min 0 min 378 W/m 6,4 km/h (2 Bft) 97,87 %
12.07.2023 08:32 17,7 C 21,1 C 13,3 C 95 % 1012,0 hPa 0,0 l/m 2 min 0 min 386 W/m 6,4 km/h (2 Bft) 97,87 %
12.07.2023 08:34 17,8 C 22,2 C 13,9 C 95 % 1012,0 hPa 0,0 l/m 2 min 0 min 372 W/m 12,9 km/h (3 Bft) 97,87 %
12.07.2023 08:36 17,9 C 22,8 C 13,9 C 95 % 1012,0 hPa 0,0 l/m 2 min 0 min 421 W/m 9,7 km/h (2 Bft) 97,87 %
12.07.2023 08:38 18,0 C 23,3 C 13,9 C 95 % 1012,0 hPa 0,0 l/m 2 min 0 min 484 W/m 12,9 km/h (3 Bft) 97,87 %
12.07.2023 08:40 18,1 C 23,3 C 14,4 C 95 % 1012,0 hPa 0,0 l/m 2 min 0 min 510 W/m 9,7 km/h (2 Bft) 97,87 %
12.07.2023 08:42 18,2 C 21,1 C 13,9 C 94 % 1012,1 hPa 0,0 l/m 2 min 0 min 218 W/m 16,1 km/h (3 Bft) 95,65 %
12.07.2023 08:44 18,2 C 20,0 C 13,9 C 93 % 1012,2 hPa 0,0 l/m 0 min 0 min 166 W/m 12,9 km/h (3 Bft) 100,00 %
12.07.2023 08:46 18,2 C 19,4 C 13,3 C 93 % 1012,3 hPa 0,0 l/m 0 min 0 min 182 W/m 29,0 km/h (5 Bft) 100,00 %
12.07.2023 08:48 18,2 C 18,9 C 13,3 C 93 % 1012,3 hPa 0,0 l/m 0 min 0 min 201 W/m 12,9 km/h (3 Bft) 100,00 %
12.07.2023 08:50 18,2 C 18,9 C 12,8 C 92 % 1012,3 hPa 0,0 l/m 0 min 0 min 163 W/m 16,1 km/h (3 Bft) 100,00 %
12.07.2023 08:52 18,2 C 18,3 C 12,8 C 91 % 1012,3 hPa 0,0 l/m 0 min 0 min 167 W/m 12,9 km/h (3 Bft) 100,00 %
12.07.2023 08:54 18,2 C 18,3 C 12,8 C 91 % 1012,3 hPa 0,0 l/m 0 min 0 min 162 W/m 25,7 km/h (4 Bft) 97,87 %
12.07.2023 08:56 18,2 C 18,3 C 12,8 C 91 % 1012,3 hPa 0,0 l/m 0 min 0 min 166 W/m 16,1 km/h (3 Bft) 97,83 %
12.07.2023 08:58 18,2 C 18,3 C 12,8 C 91 % 1012,3 hPa 0,0 l/m 0 min 0 min 179 W/m 9,7 km/h (2 Bft) 100,00 %
12.07.2023 09:00 18,2 C 18,3 C 12,8 C 91 % 1012,3 hPa 0,0 l/m 0 min 0 min 206 W/m 16,1 km/h (3 Bft) 97,87 %
12.07.2023 09:02 18,2 C 18,3 C 12,8 C 90 % 1012,3 hPa 0,0 l/m 0 min 0 min 232 W/m 16,1 km/h (3 Bft) 100,00 %
12.07.2023 09:04 18,2 C 18,9 C 12,8 C 89 % 1012,4 hPa 0,0 l/m 2 min 0 min 274 W/m 22,5 km/h (4 Bft) 100,00 %
12.07.2023 09:06 18,2 C 18,9 C 12,8 C 89 % 1012,3 hPa 0,0 l/m 2 min 0 min 285 W/m 19,3 km/h (3 Bft) 100,00 %
12.07.2023 09:08 18,2 C 18,9 C 12,8 C 89 % 1012,4 hPa 0,0 l/m 0 min 0 min 243 W/m 12,9 km/h (3 Bft) 100,00 %
12.07.2023 09:10 18,3 C 18,9 C 13,3 C 89 % 1012,3 hPa 0,0 l/m 0 min 0 min 213 W/m 12,9 km/h (3 Bft) 100,00 %
12.07.2023 09:12 18,3 C 18,9 C 12,8 C 89 % 1012,4 hPa 0,0 l/m 0 min 0 min 201 W/m 19,3 km/h (3 Bft) 100,00 %
12.07.2023 09:14 18,3 C 18,9 C 12,8 C 88 % 1012,5 hPa 0,0 l/m 0 min 0 min 218 W/m 16,1 km/h (3 Bft) 100,00 %
12.07.2023 09:16 18,3 C 18,3 C 12,8 C 88 % 1012,4 hPa 0,0 l/m 0 min 0 min 242 W/m 22,5 km/h (4 Bft) 97,83 %
12.07.2023 09:18 18,3 C 18,3 C 12,8 C 88 % 1012,5 hPa 0,0 l/m 0 min 0 min 247 W/m 12,9 km/h (3 Bft) 100,00 %
12.07.2023 09:20 18,3 C 18,9 C 12,8 C 88 % 1012,5 hPa 0,0 l/m 2 min 0 min 260 W/m 12,9 km/h (3 Bft) 100,00 %
12.07.2023 09:22 18,3 C 18,3 C 12,8 C 88 % 1012,5 hPa 0,0 l/m 0 min 0 min 230 W/m 16,1 km/h (3 Bft) 100,00 %
12.07.2023 09:24 18,3 C 18,3 C 12,8 C 87 % 1012,4 hPa 0,0 l/m 0 min 0 min 196 W/m 12,9 km/h (3 Bft) 100,00 %
12.07.2023 09:26 18,3 C 19,4 C 12,8 C 87 % 1012,5 hPa 0,0 l/m 0 min 0 min 186 W/m 16,1 km/h (3 Bft) 97,87 %
12.07.2023 09:28 18,4 C 20,6 C 13,3 C 87 % 1012,5 hPa 0,0 l/m 2 min 0 min 399 W/m 16,1 km/h (3 Bft) 100,00 %
12.07.2023 09:30 18,5 C 22,2 C 13,9 C 87 % 1012,5 hPa 0,0 l/m 2 min 0 min 540 W/m 12,9 km/h (3 Bft) 100,00 %
12.07.2023 09:32 18,6 C 22,8 C 14,4 C 87 % 1012,4 hPa 0,0 l/m 2 min 0 min 539 W/m 12,9 km/h (3 Bft) 97,87 %
12.07.2023 09:34 18,7 C 23,3 C 16,1 C 87 % 1012,4 hPa 0,0 l/m 2 min 0 min 544 W/m 19,3 km/h (3 Bft) 97,87 %
12.07.2023 09:36 18,8 C 23,3 C 17,2 C 86 % 1012,5 hPa 0,0 l/m 2 min 0 min 553 W/m 19,3 km/h (3 Bft) 95,74 %
12.07.2023 09:38 18,9 C 23,3 C 17,8 C 85 % 1012,5 hPa 0,0 l/m 2 min 0 min 559 W/m 22,5 km/h (4 Bft) 97,87 %
12.07.2023 09:40 18,9 C 23,3 C 17,8 C 85 % 1012,5 hPa 0,0 l/m 2 min 0 min 564 W/m 29,0 km/h (5 Bft) 95,74 %
12.07.2023 09:42 19,1 C 22,8 C 18,3 C 84 % 1012,4 hPa 0,0 l/m 2 min 0 min 560 W/m 16,1 km/h (3 Bft) 97,87 %
12.07.2023 09:44 19,1 C 23,3 C 18,3 C 84 % 1012,4 hPa 0,0 l/m 2 min 0 min 571 W/m 12,9 km/h (3 Bft) 95,65 %
12.07.2023 09:46 19,2 C 23,3 C 18,9 C 84 % 1012,4 hPa 0,0 l/m 2 min 0 min 563 W/m 25,7 km/h (4 Bft) 91,49 %
12.07.2023 09:48 19,3 C 23,3 C 18,9 C 84 % 1012,3 hPa 0,0 l/m 2 min 0 min 587 W/m 12,9 km/h (3 Bft) 93,62 %
12.07.2023 09:50 19,3 C 23,3 C 18,9 C 83 % 1012,3 hPa 0,0 l/m 2 min 0 min 595 W/m 22,5 km/h (4 Bft) 95,74 %
12.07.2023 09:52 19,4 C 23,3 C 18,9 C 83 % 1012,3 hPa 0,0 l/m 2 min 0 min 600 W/m 19,3 km/h (3 Bft) 97,87 %
12.07.2023 09:54 19,5 C 23,9 C 19,4 C 82 % 1012,3 hPa 0,0 l/m 2 min 0 min 604 W/m 16,1 km/h (3 Bft) 95,74 %
12.07.2023 09:56 19,6 C 22,8 C 18,9 C 82 % 1012,3 hPa 0,0 l/m 2 min 0 min 606 W/m 22,5 km/h (4 Bft) 95,65 %
12.07.2023 09:58 19,6 C 22,8 C 18,9 C 81 % 1012,4 hPa 0,0 l/m 2 min 0 min 613 W/m 22,5 km/h (4 Bft) 95,74 %
12.07.2023 10:00 19,7 C 22,2 C 18,9 C 79 % 1012,3 hPa 0,0 l/m 2 min 0 min 617 W/m 16,1 km/h (3 Bft) 95,74 %
12.07.2023 10:02 19,8 C 23,3 C 19,4 C 80 % 1012,3 hPa 0,0 l/m 2 min 0 min 622 W/m 19,3 km/h (3 Bft) 93,62 %
12.07.2023 10:04 19,8 C 23,3 C 19,4 C 79 % 1012,4 hPa 0,0 l/m 2 min 0 min 628 W/m 12,9 km/h (3 Bft) 95,74 %
12.07.2023 10:06 20,0 C 23,3 C 19,4 C 79 % 1012,4 hPa 0,0 l/m 2 min 0 min 633 W/m 19,3 km/h (3 Bft) 93,62 %
12.07.2023 10:08 20,1 C 23,3 C 19,4 C 77 % 1012,3 hPa 0,0 l/m 2 min 0 min 636 W/m 16,1 km/h (3 Bft) 93,62 %
12.07.2023 10:10 20,2 C 23,3 C 18,9 C 76 % 1012,4 hPa 0,0 l/m 2 min 0 min 642 W/m 19,3 km/h (3 Bft) 93,62 %
12.07.2023 10:12 20,2 C 23,3 C 18,9 C 76 % 1012,4 hPa 0,0 l/m 2 min 0 min 648 W/m 16,1 km/h (3 Bft) 93,48 %
12.07.2023 10:14 20,3 C 23,3 C 18,9 C 76 % 1012,3 hPa 0,0 l/m 2 min 0 min 651 W/m 16,1 km/h (3 Bft) 93,62 %
12.07.2023 10:16 20,3 C 23,3 C 18,9 C 76 % 1012,4 hPa 0,0 l/m 2 min 0 min 658 W/m 16,1 km/h (3 Bft) 93,62 %
12.07.2023 10:18 20,4 C 22,8 C 18,9 C 76 % 1012,5 hPa 0,0 l/m 2 min 0 min 669 W/m 16,1 km/h (3 Bft) 93,62 %
12.07.2023 10:20 20,4 C 23,3 C 18,9 C 76 % 1012,5 hPa 0,0 l/m 2 min 0 min 676 W/m 16,1 km/h (3 Bft) 95,74 %
12.07.2023 10:22 20,5 C 23,3 C 18,9 C 76 % 1012,5 hPa 0,0 l/m 2 min 0 min 698 W/m 29,0 km/h (5 Bft) 95,74 %
12.07.2023 10:24 20,6 C 22,2 C 18,3 C 76 % 1012,5 hPa 0,0 l/m 2 min 0 min 525 W/m 29,0 km/h (5 Bft) 95,65 %
12.07.2023 10:26 20,5 C 21,7 C 17,8 C 76 % 1012,6 hPa 0,0 l/m 0 min 0 min 291 W/m 22,5 km/h (4 Bft) 93,62 %
12.07.2023 10:28 20,4 C 21,1 C 17,8 C 76 % 1012,5 hPa 0,0 l/m 2 min 0 min 789 W/m 22,5 km/h (4 Bft) 93,62 %
12.07.2023 10:30 20,4 C 21,1 C 17,8 C 76 % 1012,6 hPa 0,0 l/m 2 min 0 min 817 W/m 25,7 km/h (4 Bft) 95,74 %
12.07.2023 10:32 20,4 C 21,1 C 17,8 C 76 % 1012,6 hPa 0,0 l/m 2 min 0 min 844 W/m 22,5 km/h (4 Bft) 95,74 %
12.07.2023 10:34 20,5 C 21,1 C 17,8 C 76 % 1012,6 hPa 0,0 l/m 2 min 0 min 844 W/m 22,5 km/h (4 Bft) 95,74 %
12.07.2023 10:36 20,5 C 21,1 C 17,8 C 76 % 1012,6 hPa 0,0 l/m 2 min 0 min 844 W/m 19,3 km/h (3 Bft) 95,74 %
12.07.2023 10:38 20,5 C 21,1 C 17,8 C 75 % 1012,6 hPa 0,0 l/m 0 min 0 min 241 W/m 16,1 km/h (3 Bft) 93,48 %
12.07.2023 10:40 20,6 C 21,1 C 18,3 C 76 % 1012,6 hPa 0,0 l/m 2 min 0 min 405 W/m 16,1 km/h (3 Bft) 95,74 %
12.07.2023 10:42 20,6 C 21,7 C 18,3 C 76 % 1012,6 hPa 0,0 l/m 2 min 0 min 848 W/m 16,1 km/h (3 Bft) 97,87 %
12.07.2023 10:44 20,6 C 21,7 C 18,9 C 75 % 1012,6 hPa 0,0 l/m 2 min 0 min 857 W/m 22,5 km/h (4 Bft) 97,87 %
12.07.2023 10:46 20,7 C 21,7 C 19,4 C 75 % 1012,6 hPa 0,0 l/m 2 min 0 min 864 W/m 16,1 km/h (3 Bft) 97,87 %
12.07.2023 10:48 20,8 C 21,7 C 20,0 C 74 % 1012,6 hPa 0,0 l/m 2 min 0 min 862 W/m 19,3 km/h (3 Bft) 93,62 %
12.07.2023 10:50 20,8 C 22,2 C 20,0 C 74 % 1012,7 hPa 0,0 l/m 2 min 0 min 817 W/m 16,1 km/h (3 Bft) 97,83 %
12.07.2023 10:52 20,9 C 21,7 C 20,6 C 73 % 1012,6 hPa 0,0 l/m 2 min 0 min 839 W/m 29,0 km/h (5 Bft) 97,87 %
12.07.2023 10:54 20,9 C 21,7 C 19,4 C 73 % 1012,6 hPa 0,0 l/m 2 min 0 min 896 W/m 16,1 km/h (3 Bft) 97,87 %
12.07.2023 10:56 20,9 C 22,2 C 19,4 C 74 % 1012,6 hPa 0,0 l/m 2 min 0 min 965 W/m 29,0 km/h (5 Bft) 97,87 %
12.07.2023 10:58 21,1 C 22,8 C 20,0 C 73 % 1012,6 hPa 0,0 l/m 2 min 0 min 936 W/m 35,4 km/h (5 Bft) 97,87 %
12.07.2023 11:00 21,2 C 22,2 C 19,4 C 72 % 1012,7 hPa 0,0 l/m 2 min 0 min 901 W/m 25,7 km/h (4 Bft) 100,00 %
12.07.2023 11:02 21,3 C 22,2 C 18,9 C 73 % 1012,7 hPa 0,0 l/m 0 min 0 min 255 W/m 16,1 km/h (3 Bft) 100,00 %
12.07.2023 11:04 21,2 C 21,7 C 18,3 C 72 % 1012,7 hPa 0,0 l/m 0 min 0 min 264 W/m 16,1 km/h (3 Bft) 100,00 %
12.07.2023 11:06 21,1 C 21,1 C 17,8 C 72 % 1012,7 hPa 0,0 l/m 0 min 0 min 265 W/m 32,2 km/h (5 Bft) 100,00 %
12.07.2023 11:08 20,9 C 21,1 C 17,8 C 73 % 1012,7 hPa 0,0 l/m 0 min 0 min 294 W/m 16,1 km/h (3 Bft) 100,00 %
12.07.2023 11:10 20,9 C 21,1 C 17,8 C 73 % 1012,7 hPa 0,0 l/m 2 min 0 min 364 W/m 19,3 km/h (3 Bft) 100,00 %
12.07.2023 11:12 20,9 C 22,2 C 18,3 C 73 % 1012,7 hPa 0,0 l/m 2 min 0 min 881 W/m 12,9 km/h (3 Bft) 100,00 %
12.07.2023 11:14 21,1 C 23,3 C 18,9 C 74 % 1012,7 hPa 0,0 l/m 2 min 0 min 931 W/m 22,5 km/h (4 Bft) 100,00 %
12.07.2023 11:16 21,3 C 23,3 C 18,9 C 73 % 1012,7 hPa 0,0 l/m 2 min 0 min 944 W/m 22,5 km/h (4 Bft) 100,00 %
12.07.2023 11:18 21,4 C 23,3 C 18,9 C 72 % 1012,7 hPa 0,0 l/m 2 min 0 min 942 W/m 25,7 km/h (4 Bft) 100,00 %
12.07.2023 11:20 21,4 C 23,3 C 18,9 C 72 % 1012,7 hPa 0,0 l/m 2 min 0 min 942 W/m 22,5 km/h (4 Bft) 97,83 %
12.07.2023 11:22 21,6 C 22,8 C 18,9 C 72 % 1012,7 hPa 0,0 l/m 2 min 0 min 942 W/m 16,1 km/h (3 Bft) 100,00 %
12.07.2023 11:24 21,6 C 22,2 C 18,9 C 72 % 1012,7 hPa 0,0 l/m 2 min 0 min 580 W/m 16,1 km/h (3 Bft) 100,00 %
12.07.2023 11:26 21,5 C 22,8 C 18,9 C 72 % 1012,8 hPa 0,0 l/m 0 min 0 min 236 W/m 22,5 km/h (4 Bft) 100,00 %
12.07.2023 11:28 21,4 C 22,8 C 19,4 C 71 % 1012,8 hPa 0,0 l/m 2 min 0 min 828 W/m 19,3 km/h (3 Bft) 100,00 %
12.07.2023 11:30 21,5 C 22,2 C 19,4 C 72 % 1012,7 hPa 0,0 l/m 2 min 0 min 492 W/m 16,1 km/h (3 Bft) 100,00 %
12.07.2023 11:32 21,4 C 21,7 C 18,9 C 71 % 1012,8 hPa 0,0 l/m 0 min 0 min 280 W/m 19,3 km/h (3 Bft) 100,00 %
12.07.2023 11:34 21,3 C 21,7 C 18,9 C 71 % 1012,7 hPa 0,0 l/m 0 min 0 min 288 W/m 16,1 km/h (3 Bft) 100,00 %
12.07.2023 11:36 21,3 C 22,8 C 19,4 C 72 % 1012,7 hPa 0,0 l/m 2 min 0 min 796 W/m 16,1 km/h (3 Bft) 100,00 %
12.07.2023 11:38 21,3 C 22,2 C 19,4 C 72 % 1012,6 hPa 0,0 l/m 2 min 0 min 652 W/m 12,9 km/h (3 Bft) 100,00 %
12.07.2023 11:40 21,4 C 21,7 C 18,9 C 73 % 1012,6 hPa 0,0 l/m 0 min 0 min 143 W/m 6,4 km/h (2 Bft) 100,00 %
12.07.2023 11:42 21,4 C 22,2 C 18,9 C 72 % 1012,8 hPa 0,0 l/m 0 min 0 min 139 W/m 19,3 km/h (3 Bft) 97,87 %
12.07.2023 11:44 21,3 C 23,3 C 20,6 C 71 % 1012,7 hPa 0,0 l/m 2 min 0 min 653 W/m 19,3 km/h (3 Bft) 100,00 %
12.07.2023 11:46 21,3 C 23,9 C 21,1 C 71 % 1012,7 hPa 0,0 l/m 2 min 0 min 908 W/m 25,7 km/h (4 Bft) 97,87 %
12.07.2023 11:48 21,4 C 23,3 C 21,1 C 71 % 1012,7 hPa 0,0 l/m 2 min 0 min 911 W/m 16,1 km/h (3 Bft) 100,00 %
12.07.2023 11:50 21,6 C 23,3 C 21,1 C 72 % 1012,8 hPa 0,0 l/m 2 min 0 min 999 W/m 16,1 km/h (3 Bft) 100,00 %
12.07.2023 11:52 21,6 C 22,2 C 20,0 C 70 % 1012,7 hPa 0,0 l/m 0 min 0 min 344 W/m 19,3 km/h (3 Bft) 100,00 %
12.07.2023 11:54 21,4 C 22,8 C 19,4 C 71 % 1012,7 hPa 0,0 l/m 0 min 0 min 303 W/m 19,3 km/h (3 Bft) 100,00 %
12.07.2023 11:56 21,4 C 23,9 C 20,0 C 72 % 1012,8 hPa 0,0 l/m 2 min 0 min 978 W/m 22,5 km/h (4 Bft) 97,87 %
12.07.2023 11:58 21,6 C 23,3 C 19,4 C 71 % 1012,8 hPa 0,0 l/m 2 min 0 min 1008 W/m 19,3 km/h (3 Bft) 100,00 %
12.07.2023 12:00 21,6 C 22,8 C 19,4 C 70 % 1012,8 hPa 0,0 l/m 2 min 0 min 624 W/m 22,5 km/h (4 Bft) 100,00 %
12.07.2023 12:02 21,7 C 23,3 C 19,4 C 71 % 1012,8 hPa 0,0 l/m 0 min 0 min 286 W/m 19,3 km/h (3 Bft) 100,00 %
12.07.2023 12:04 21,7 C 23,9 C 20,0 C 70 % 1012,8 hPa 0,0 l/m 2 min 0 min 608 W/m 19,3 km/h (3 Bft) 97,87 %
12.07.2023 12:07 21,8 C 25,0 C 20,0 C 69 % 1012,7 hPa 0,0 l/m 3 min 0 min 925 W/m 22,5 km/h (4 Bft) 97,18 %
12.07.2023 12:08 21,8 C 25,0 C 20,0 C 69 % 1012,7 hPa 0,0 l/m 1 min 0 min 962 W/m 16,1 km/h (3 Bft) 100,00 %
12.07.2023 12:12 22,1 C 25,6 C 20,6 C 69 % 1012,7 hPa 0,0 l/m 4 min 0 min 889 W/m 32,2 km/h (5 Bft) 93,85 %
12.07.2023 12:14 22,1 C 25,0 C 20,6 C 68 % 1012,7 hPa 0,0 l/m 2 min 0 min 885 W/m 25,7 km/h (4 Bft) 95,74 %
12.07.2023 12:16 22,1 C 25,0 C 20,6 C 68 % 1012,8 hPa 0,0 l/m 2 min 0 min 888 W/m 19,3 km/h (3 Bft) 91,67 %
12.07.2023 12:18 22,1 C 25,0 C 21,1 C 68 % 1012,7 hPa 0,0 l/m 2 min 0 min 886 W/m 29,0 km/h (5 Bft) 96,00 %
12.07.2023 12:20 22,1 C 25,6 C 22,2 C 68 % 1012,7 hPa 0,0 l/m 2 min 0 min 885 W/m 19,3 km/h (3 Bft) 93,75 %
12.07.2023 12:22 22,3 C 25,6 C 22,8 C 68 % 1012,8 hPa 0,0 l/m 2 min 0 min 882 W/m 19,3 km/h (3 Bft) 95,74 %
12.07.2023 12:24 22,4 C 25,6 C 23,9 C 67 % 1012,7 hPa 0,0 l/m 2 min 0 min 887 W/m 16,1 km/h (3 Bft) 95,74 %
12.07.2023 12:26 22,4 C 26,1 C 24,4 C 67 % 1012,7 hPa 0,0 l/m 2 min 0 min 896 W/m 19,3 km/h (3 Bft) 95,74 %
12.07.2023 12:28 22,6 C 26,1 C 25,6 C 68 % 1012,8 hPa 0,0 l/m 2 min 0 min 918 W/m 16,1 km/h (3 Bft) 93,62 %
12.07.2023 12:30 22,7 C 26,1 C 25,0 C 67 % 1012,8 hPa 0,0 l/m 2 min 0 min 926 W/m 19,3 km/h (3 Bft) 95,74 %
12.07.2023 12:32 22,7 C 26,1 C 25,6 C 67 % 1012,8 hPa 0,0 l/m 2 min 0 min 947 W/m 25,7 km/h (4 Bft) 95,65 %
12.07.2023 12:34 22,9 C 27,2 C 26,7 C 67 % 1012,8 hPa 0,0 l/m 2 min 0 min 932 W/m 12,9 km/h (3 Bft) 95,74 %
12.07.2023 12:36 23,1 C 27,2 C 27,2 C 66 % 1012,8 hPa 0,0 l/m 2 min 0 min 964 W/m 16,1 km/h (3 Bft) 95,74 %
12.07.2023 12:38 23,2 C 27,2 C 27,2 C 65 % 1012,8 hPa 0,0 l/m 2 min 0 min 1025 W/m 35,4 km/h (5 Bft) 95,74 %
12.07.2023 12:40 23,2 C 26,7 C 26,7 C 64 % 1012,9 hPa 0,0 l/m 2 min 0 min 1005 W/m 16,1 km/h (3 Bft) 95,74 %
12.07.2023 12:42 23,2 C 26,7 C 26,1 C 65 % 1012,8 hPa 0,0 l/m 2 min 0 min 954 W/m 22,5 km/h (4 Bft) 95,74 %
12.07.2023 12:44 23,2 C 26,1 C 25,6 C 65 % 1012,8 hPa 0,0 l/m 2 min 0 min 965 W/m 22,5 km/h (4 Bft) 95,74 %
12.07.2023 12:46 23,2 C 26,7 C 25,6 C 65 % 1012,9 hPa 0,0 l/m 2 min 0 min 970 W/m 16,1 km/h (3 Bft) 97,83 %
12.07.2023 12:48 23,2 C 26,7 C 25,0 C 65 % 1012,8 hPa 0,0 l/m 2 min 0 min 1024 W/m 19,3 km/h (3 Bft) 100,00 %
12.07.2023 12:50 23,3 C 26,1 C 24,4 C 65 % 1012,9 hPa 0,0 l/m 2 min 0 min 1028 W/m 16,1 km/h (3 Bft) 100,00 %
12.07.2023 12:52 23,3 C 26,1 C 24,4 C 65 % 1012,9 hPa 0,0 l/m 2 min 0 min 1028 W/m 12,9 km/h (3 Bft) 97,87 %
12.07.2023 12:54 23,4 C 26,1 C 23,3 C 64 % 1012,8 hPa 0,0 l/m 2 min 0 min 1028 W/m 19,3 km/h (3 Bft) 100,00 %
12.07.2023 12:56 23,3 C 25,0 C 22,2 C 64 % 1012,8 hPa 0,0 l/m 2 min 0 min 1028 W/m 19,3 km/h (3 Bft) 100,00 %
12.07.2023 12:58 23,2 C 25,6 C 21,7 C 65 % 1012,9 hPa 0,0 l/m 2 min 0 min 1025 W/m 16,1 km/h (3 Bft) 100,00 %
12.07.2023 13:00 23,2 C 26,7 C 21,7 C 65 % 1012,9 hPa 0,0 l/m 2 min 0 min 1010 W/m 19,3 km/h (3 Bft) 97,83 %
12.07.2023 13:02 23,2 C 26,7 C 21,1 C 65 % 1012,9 hPa 0,0 l/m 2 min 0 min 1019 W/m 25,7 km/h (4 Bft) 100,00 %
12.07.2023 13:04 23,3 C 27,2 C 21,1 C 65 % 1012,8 hPa 0,0 l/m 2 min 0 min 1008 W/m 16,1 km/h (3 Bft) 97,92 %
12.07.2023 13:06 23,5 C 27,2 C 21,1 C 65 % 1012,9 hPa 0,0 l/m 2 min 0 min 1008 W/m 16,1 km/h (3 Bft) 100,00 %
12.07.2023 13:08 23,6 C 26,7 C 21,1 C 64 % 1013,0 hPa 0,0 l/m 2 min 0 min 1023 W/m 29,0 km/h (5 Bft) 100,00 %
12.07.2023 13:10 23,7 C 26,7 C 21,1 C 64 % 1012,9 hPa 0,0 l/m 2 min 0 min 1023 W/m 12,9 km/h (3 Bft) 100,00 %
12.07.2023 13:12 23,7 C 25,0 C 21,1 C 65 % 1012,9 hPa 0,0 l/m 2 min 0 min 800 W/m 16,1 km/h (3 Bft) 95,74 %
12.07.2023 13:14 23,6 C 23,9 C 20,6 C 65 % 1012,9 hPa 0,0 l/m 0 min 0 min 188 W/m 16,1 km/h (3 Bft) 100,00 %
12.07.2023 13:16 23,4 C 23,3 C 20,0 C 65 % 1012,9 hPa 0,0 l/m 0 min 0 min 199 W/m 16,1 km/h (3 Bft) 100,00 %
12.07.2023 13:18 23,2 C 23,9 C 19,4 C 66 % 1012,9 hPa 0,0 l/m 0 min 0 min 199 W/m 32,2 km/h (5 Bft) 100,00 %
12.07.2023 13:20 23,1 C 25,6 C 20,0 C 67 % 1012,9 hPa 0,0 l/m 2 min 0 min 865 W/m 16,1 km/h (3 Bft) 97,87 %
12.07.2023 13:22 23,1 C 26,7 C 20,0 C 66 % 1012,9 hPa 0,0 l/m 2 min 0 min 935 W/m 22,5 km/h (4 Bft) 100,00 %
12.07.2023 13:24 23,1 C 25,0 C 20,0 C 64 % 1012,9 hPa 0,0 l/m 2 min 0 min 946 W/m 22,5 km/h (4 Bft) 100,00 %
12.07.2023 13:26 23,1 C 25,0 C 20,0 C 64 % 1012,9 hPa 0,0 l/m 0 min 0 min 369 W/m 12,9 km/h (3 Bft) 100,00 %
12.07.2023 13:28 23,1 C 26,7 C 20,0 C 64 % 1013,0 hPa 0,0 l/m 2 min 0 min 738 W/m 16,1 km/h (3 Bft) 97,87 %
12.07.2023 13:30 23,2 C 27,8 C 20,0 C 65 % 1012,9 hPa 0,0 l/m 2 min 0 min 1038 W/m 6,4 km/h (2 Bft) 100,00 %
12.07.2023 13:32 23,3 C 28,3 C 20,6 C 64 % 1012,9 hPa 0,0 l/m 2 min 0 min 1024 W/m 16,1 km/h (3 Bft) 95,74 %
12.07.2023 13:34 23,4 C 26,1 C 20,6 C 63 % 1012,8 hPa 0,0 l/m 2 min 0 min 981 W/m 29,0 km/h (5 Bft) 97,87 %
12.07.2023 13:36 23,5 C 25,6 C 20,6 C 63 % 1012,9 hPa 0,0 l/m 2 min 0 min 745 W/m 19,3 km/h (3 Bft) 100,00 %
12.07.2023 13:38 23,5 C 26,7 C 20,6 C 62 % 1012,9 hPa 0,0 l/m 2 min 0 min 555 W/m 12,9 km/h (3 Bft) 100,00 %
12.07.2023 13:40 23,6 C 27,2 C 20,6 C 62 % 1012,8 hPa 0,0 l/m 2 min 0 min 943 W/m 25,7 km/h (4 Bft) 100,00 %
12.07.2023 13:42 23,7 C 28,3 C 20,6 C 63 % 1012,8 hPa 0,0 l/m 2 min 0 min 951 W/m 22,5 km/h (4 Bft) 100,00 %
12.07.2023 13:44 23,8 C 28,3 C 21,1 C 62 % 1012,9 hPa 0,0 l/m 2 min 0 min 957 W/m 19,3 km/h (3 Bft) 100,00 %
12.07.2023 13:46 23,8 C 28,3 C 21,7 C 62 % 1012,9 hPa 0,0 l/m 2 min 0 min 967 W/m 16,1 km/h (3 Bft) 95,74 %
12.07.2023 13:48 23,9 C 27,8 C 22,8 C 62 % 1012,8 hPa 0,0 l/m 2 min 0 min 994 W/m 16,1 km/h (3 Bft) 97,87 %
12.07.2023 13:50 24,1 C 27,2 C 22,8 C 62 % 1012,9 hPa 0,0 l/m 2 min 0 min 1015 W/m 12,9 km/h (3 Bft) 95,74 %
12.07.2023 13:52 24,1 C 27,8 C 23,9 C 60 % 1012,9 hPa 0,0 l/m 2 min 0 min 985 W/m 16,1 km/h (3 Bft) 97,87 %
12.07.2023 13:54 24,1 C 28,3 C 25,0 C 59 % 1012,9 hPa 0,0 l/m 2 min 0 min 977 W/m 16,1 km/h (3 Bft) 95,74 %
12.07.2023 13:56 24,1 C 28,3 C 25,6 C 59 % 1012,9 hPa 0,0 l/m 2 min 0 min 981 W/m 16,1 km/h (3 Bft) 95,65 %
12.07.2023 13:58 24,1 C 28,3 C 25,0 C 59 % 1012,8 hPa 0,0 l/m 2 min 0 min 1001 W/m 22,5 km/h (4 Bft) 97,87 %
12.07.2023 14:00 24,2 C 28,3 C 24,4 C 59 % 1012,9 hPa 0,0 l/m 2 min 0 min 984 W/m 16,1 km/h (3 Bft) 97,87 %
12.07.2023 14:02 24,3 C 28,9 C 23,9 C 59 % 1012,9 hPa 0,0 l/m 2 min 0 min 982 W/m 16,1 km/h (3 Bft) 97,87 %
12.07.2023 14:04 24,4 C 29,4 C 23,9 C 58 % 1013,0 hPa 0,0 l/m 2 min 0 min 998 W/m 16,1 km/h (3 Bft) 97,96 %
12.07.2023 14:06 24,6 C 28,9 C 22,8 C 58 % 1012,9 hPa 0,0 l/m 2 min 0 min 1027 W/m 25,7 km/h (4 Bft) 95,74 %
12.07.2023 14:08 24,7 C 28,9 C 22,2 C 58 % 1012,9 hPa 0,0 l/m 2 min 0 min 1085 W/m 22,5 km/h (4 Bft) 95,65 %
12.07.2023 14:10 24,6 C 27,8 C 21,7 C 58 % 1012,9 hPa 0,0 l/m 2 min 0 min 1042 W/m 16,1 km/h (3 Bft) 97,87 %
12.07.2023 14:12 24,6 C 27,8 C 21,1 C 58 % 1012,9 hPa 0,0 l/m 2 min 0 min 1007 W/m 19,3 km/h (3 Bft) 93,62 %
12.07.2023 14:14 24,6 C 28,3 C 21,1 C 59 % 1012,9 hPa 0,0 l/m 2 min 0 min 989 W/m 19,3 km/h (3 Bft) 95,74 %
12.07.2023 14:16 24,7 C 28,9 C 21,1 C 59 % 1012,9 hPa 0,0 l/m 2 min 0 min 968 W/m 16,1 km/h (3 Bft) 95,74 %
12.07.2023 14:18 24,7 C 29,4 C 21,1 C 59 % 1013,0 hPa 0,0 l/m 2 min 0 min 950 W/m 16,1 km/h (3 Bft) 95,74 %
12.07.2023 14:20 24,8 C 30,0 C 21,1 C 58 % 1012,9 hPa 0,0 l/m 2 min 0 min 947 W/m 19,3 km/h (3 Bft) 95,74 %
12.07.2023 14:22 24,8 C 29,4 C 21,1 C 57 % 1012,9 hPa 0,0 l/m 2 min 0 min 946 W/m 22,5 km/h (4 Bft) 95,65 %
12.07.2023 14:24 24,7 C 29,4 C 20,6 C 58 % 1012,8 hPa 0,0 l/m 2 min 0 min 997 W/m 16,1 km/h (3 Bft) 95,74 %
12.07.2023 14:26 24,8 C 29,4 C 21,1 C 59 % 1012,8 hPa 0,0 l/m 2 min 0 min 1004 W/m 16,1 km/h (3 Bft) 95,74 %
12.07.2023 14:28 24,9 C 30,0 C 21,1 C 57 % 1012,9 hPa 0,0 l/m 2 min 0 min 974 W/m 19,3 km/h (3 Bft) 95,74 %
12.07.2023 14:30 25,1 C 30,0 C 21,7 C 55 % 1012,8 hPa 0,0 l/m 2 min 0 min 955 W/m 35,4 km/h (5 Bft) 95,74 %
12.07.2023 14:32 25,2 C 29,4 C 21,1 C 55 % 1012,9 hPa 0,0 l/m 2 min 0 min 939 W/m 25,7 km/h (4 Bft) 93,62 %
12.07.2023 14:34 25,1 C 29,4 C 21,1 C 54 % 1012,9 hPa 0,0 l/m 2 min 0 min 936 W/m 19,3 km/h (3 Bft) 93,62 %
12.07.2023 14:36 25,1 C 29,4 C 21,1 C 55 % 1012,9 hPa 0,0 l/m 2 min 0 min 923 W/m 25,7 km/h (4 Bft) 93,48 %
12.07.2023 14:38 25,1 C 27,8 C 21,1 C 55 % 1012,8 hPa 0,0 l/m 2 min 0 min 998 W/m 16,1 km/h (3 Bft) 91,49 %
12.07.2023 14:40 25,0 C 28,3 C 21,1 C 54 % 1012,9 hPa 0,0 l/m 2 min 0 min 1028 W/m 25,7 km/h (4 Bft) 95,74 %
12.07.2023 14:42 25,2 C 29,4 C 21,7 C 54 % 1013,0 hPa 0,0 l/m 2 min 0 min 1029 W/m 25,7 km/h (4 Bft) 95,74 %
12.07.2023 14:44 25,2 C 30,0 C 21,7 C 53 % 1012,9 hPa 0,0 l/m 2 min 0 min 995 W/m 25,7 km/h (4 Bft) 95,74 %
12.07.2023 14:46 25,2 C 28,3 C 21,7 C 53 % 1012,9 hPa 0,0 l/m 2 min 0 min 977 W/m 22,5 km/h (4 Bft) 97,87 %
12.07.2023 14:48 25,2 C 28,3 C 21,1 C 53 % 1012,8 hPa 0,0 l/m 0 min 0 min 377 W/m 16,1 km/h (3 Bft) 95,65 %
12.07.2023 14:50 25,2 C 28,9 C 21,1 C 54 % 1012,8 hPa 0,0 l/m 2 min 0 min 948 W/m 19,3 km/h (3 Bft) 97,87 %
12.07.2023 14:52 25,2 C 27,2 C 21,1 C 53 % 1012,8 hPa 0,0 l/m 2 min 0 min 699 W/m 22,5 km/h (4 Bft) 97,87 %
12.07.2023 14:54 25,0 C 25,6 C 21,1 C 54 % 1012,8 hPa 0,0 l/m 0 min 0 min 119 W/m 12,9 km/h (3 Bft) 95,74 %
12.07.2023 14:56 24,7 C 25,6 C 20,6 C 54 % 1012,8 hPa 0,0 l/m 0 min 0 min 142 W/m 22,5 km/h (4 Bft) 97,87 %
12.07.2023 14:58 24,5 C 27,2 C 20,6 C 55 % 1012,8 hPa 0,0 l/m 2 min 0 min 735 W/m 22,5 km/h (4 Bft) 97,87 %
12.07.2023 15:00 24,6 C 28,3 C 20,6 C 56 % 1012,7 hPa 0,0 l/m 2 min 0 min 914 W/m 22,5 km/h (4 Bft) 97,83 %
12.07.2023 15:02 24,7 C 28,9 C 20,6 C 56 % 1012,8 hPa 0,0 l/m 2 min 0 min 904 W/m 16,1 km/h (3 Bft) 95,74 %
12.07.2023 15:04 24,8 C 29,4 C 21,1 C 56 % 1012,7 hPa 0,0 l/m 2 min 0 min 908 W/m 16,1 km/h (3 Bft) 97,92 %
12.07.2023 15:06 24,9 C 28,9 C 21,1 C 55 % 1012,7 hPa 0,0 l/m 2 min 0 min 914 W/m 22,5 km/h (4 Bft) 97,87 %
12.07.2023 15:08 25,0 C 28,9 C 21,1 C 54 % 1012,8 hPa 0,0 l/m 2 min 0 min 930 W/m 22,5 km/h (4 Bft) 97,87 %
12.07.2023 15:10 24,9 C 28,3 C 20,6 C 54 % 1012,7 hPa 0,0 l/m 2 min 0 min 939 W/m 19,3 km/h (3 Bft) 97,87 %
12.07.2023 15:12 25,0 C 28,9 C 21,1 C 54 % 1012,7 hPa 0,0 l/m 2 min 0 min 908 W/m 19,3 km/h (3 Bft) 97,87 %
12.07.2023 15:14 25,1 C 29,4 C 21,1 C 55 % 1012,6 hPa 0,0 l/m 2 min 0 min 900 W/m 19,3 km/h (3 Bft) 95,74 %
12.07.2023 15:16 25,2 C 29,4 C 21,1 C 55 % 1012,6 hPa 0,0 l/m 2 min 0 min 909 W/m 16,1 km/h (3 Bft) 97,83 %
12.07.2023 15:18 25,2 C 29,4 C 21,1 C 51 % 1012,7 hPa 0,0 l/m 2 min 0 min 918 W/m 32,2 km/h (5 Bft) 97,87 %
12.07.2023 15:20 25,3 C 30,0 C 21,1 C 50 % 1012,6 hPa 0,0 l/m 2 min 0 min 913 W/m 16,1 km/h (3 Bft) 100,00 %
12.07.2023 15:22 25,4 C 30,6 C 21,7 C 50 % 1012,7 hPa 0,0 l/m 2 min 0 min 915 W/m 22,5 km/h (4 Bft) 100,00 %
12.07.2023 15:24 25,5 C 28,9 C 21,7 C 50 % 1012,6 hPa 0,0 l/m 2 min 0 min 919 W/m 25,7 km/h (4 Bft) 97,87 %
12.07.2023 15:26 25,3 C 28,3 C 21,1 C 50 % 1012,7 hPa 0,0 l/m 2 min 0 min 920 W/m 29,0 km/h (5 Bft) 100,00 %
12.07.2023 15:28 25,3 C 28,3 C 21,1 C 50 % 1012,7 hPa 0,0 l/m 2 min 0 min 925 W/m 16,1 km/h (3 Bft) 100,00 %
12.07.2023 15:30 25,3 C 28,9 C 21,1 C 50 % 1012,6 hPa 0,0 l/m 2 min 0 min 925 W/m 25,7 km/h (4 Bft) 100,00 %
12.07.2023 15:32 25,3 C 28,9 C 21,1 C 51 % 1012,6 hPa 0,0 l/m 2 min 0 min 920 W/m 29,0 km/h (5 Bft) 100,00 %
12.07.2023 15:34 25,4 C 28,9 C 21,1 C 51 % 1012,6 hPa 0,0 l/m 2 min 0 min 895 W/m 19,3 km/h (3 Bft) 100,00 %
12.07.2023 15:36 25,6 C 29,4 C 21,7 C 51 % 1012,7 hPa 0,0 l/m 2 min 0 min 880 W/m 22,5 km/h (4 Bft) 100,00 %
12.07.2023 15:38 25,6 C 28,9 C 21,7 C 51 % 1012,6 hPa 0,0 l/m 2 min 0 min 871 W/m 16,1 km/h (3 Bft) 100,00 %
12.07.2023 15:40 25,6 C 28,9 C 21,1 C 51 % 1012,7 hPa 0,0 l/m 2 min 0 min 888 W/m 22,5 km/h (4 Bft) 97,83 %
12.07.2023 15:42 25,6 C 28,3 C 21,1 C 51 % 1012,6 hPa 0,0 l/m 2 min 0 min 921 W/m 29,0 km/h (5 Bft) 100,00 %
12.07.2023 15:44 25,7 C 28,9 C 21,7 C 51 % 1012,6 hPa 0,0 l/m 2 min 0 min 919 W/m 35,4 km/h (5 Bft) 100,00 %
12.07.2023 15:46 25,7 C 28,9 C 21,7 C 51 % 1012,7 hPa 0,0 l/m 2 min 0 min 913 W/m 12,9 km/h (3 Bft) 100,00 %
12.07.2023 15:48 25,8 C 28,9 C 21,7 C 51 % 1012,6 hPa 0,0 l/m 2 min 0 min 899 W/m 19,3 km/h (3 Bft) 100,00 %
12.07.2023 15:50 25,7 C 27,2 C 21,7 C 51 % 1012,7 hPa 0,0 l/m 2 min 0 min 692 W/m 16,1 km/h (3 Bft) 100,00 %
12.07.2023 15:52 25,6 C 26,7 C 21,1 C 52 % 1012,7 hPa 0,0 l/m 0 min 0 min 150 W/m 16,1 km/h (3 Bft) 100,00 %
12.07.2023 15:54 25,4 C 27,8 C 21,1 C 52 % 1012,8 hPa 0,0 l/m 2 min 0 min 872 W/m 19,3 km/h (3 Bft) 97,87 %
12.07.2023 15:56 25,4 C 28,3 C 21,1 C 51 % 1012,7 hPa 0,0 l/m 2 min 0 min 868 W/m 22,5 km/h (4 Bft) 100,00 %
12.07.2023 15:58 25,5 C 28,9 C 21,1 C 51 % 1012,7 hPa 0,0 l/m 2 min 0 min 842 W/m 19,3 km/h (3 Bft) 100,00 %
12.07.2023 16:00 25,6 C 28,3 C 21,1 C 51 % 1012,7 hPa 0,0 l/m 2 min 0 min 819 W/m 29,0 km/h (5 Bft) 100,00 %
12.07.2023 16:02 25,6 C 28,9 C 21,7 C 52 % 1012,8 hPa 0,0 l/m 2 min 0 min 821 W/m 22,5 km/h (4 Bft) 100,00 %
12.07.2023 16:04 25,6 C 28,3 C 21,1 C 51 % 1012,8 hPa 0,0 l/m 2 min 0 min 822 W/m 22,5 km/h (4 Bft) 100,00 %
12.07.2023 16:06 25,6 C 28,3 C 21,1 C 52 % 1012,8 hPa 0,0 l/m 2 min 0 min 808 W/m 25,7 km/h (4 Bft) 100,00 %
12.07.2023 16:08 25,6 C 27,8 C 21,1 C 51 % 1012,7 hPa 0,0 l/m 2 min 0 min 795 W/m 35,4 km/h (5 Bft) 100,00 %
12.07.2023 16:10 25,3 C 27,2 C 21,1 C 52 % 1012,6 hPa 0,0 l/m 2 min 0 min 763 W/m 22,5 km/h (4 Bft) 97,87 %
12.07.2023 16:12 25,3 C 27,8 C 21,1 C 53 % 1012,7 hPa 0,0 l/m 2 min 0 min 770 W/m 22,5 km/h (4 Bft) 97,87 %
12.07.2023 16:14 25,4 C 28,3 C 21,1 C 53 % 1012,7 hPa 0,0 l/m 2 min 0 min 810 W/m 19,3 km/h (3 Bft) 97,87 %
12.07.2023 16:16 25,6 C 28,9 C 21,7 C 53 % 1012,6 hPa 0,0 l/m 2 min 0 min 802 W/m 12,9 km/h (3 Bft) 95,74 %
12.07.2023 16:18 25,8 C 29,4 C 21,7 C 52 % 1012,7 hPa 0,0 l/m 2 min 0 min 817 W/m 16,1 km/h (3 Bft) 97,87 %
12.07.2023 16:20 25,9 C 28,9 C 21,7 C 50 % 1012,7 hPa 0,0 l/m 2 min 0 min 806 W/m 19,3 km/h (3 Bft) 97,83 %
12.07.2023 16:22 25,8 C 27,8 C 21,7 C 51 % 1012,6 hPa 0,0 l/m 2 min 0 min 812 W/m 22,5 km/h (4 Bft) 97,87 %
12.07.2023 16:24 25,8 C 28,3 C 21,7 C 51 % 1012,7 hPa 0,0 l/m 2 min 0 min 800 W/m 22,5 km/h (4 Bft) 97,87 %
12.07.2023 16:26 25,8 C 28,3 C 21,7 C 51 % 1012,7 hPa 0,0 l/m 2 min 0 min 798 W/m 22,5 km/h (4 Bft) 97,87 %
12.07.2023 16:28 25,8 C 28,3 C 21,7 C 52 % 1012,7 hPa 0,0 l/m 2 min 0 min 812 W/m 16,1 km/h (3 Bft) 97,87 %
12.07.2023 16:30 25,7 C 27,2 C 21,7 C 52 % 1012,6 hPa 0,0 l/m 2 min 0 min 734 W/m 16,1 km/h (3 Bft) 97,87 %
12.07.2023 16:32 25,7 C 26,1 C 21,1 C 52 % 1012,7 hPa 0,0 l/m 0 min 0 min 224 W/m 12,9 km/h (3 Bft) 97,83 %
12.07.2023 16:34 25,6 C 27,8 C 21,1 C 52 % 1012,7 hPa 0,0 l/m 0 min 0 min 258 W/m 12,9 km/h (3 Bft) 97,87 %
12.07.2023 16:36 25,7 C 28,9 C 21,7 C 53 % 1012,6 hPa 0,0 l/m 2 min 0 min 819 W/m 19,3 km/h (3 Bft) 95,74 %
12.07.2023 16:38 25,8 C 28,9 C 21,7 C 52 % 1012,6 hPa 0,0 l/m 2 min 0 min 765 W/m 16,1 km/h (3 Bft) 95,74 %
12.07.2023 16:40 25,7 C 28,9 C 21,7 C 50 % 1012,7 hPa 0,0 l/m 2 min 0 min 742 W/m 19,3 km/h (3 Bft) 97,87 %
12.07.2023 16:42 25,8 C 28,9 C 21,7 C 50 % 1012,7 hPa 0,0 l/m 2 min 0 min 728 W/m 19,3 km/h (3 Bft) 97,87 %
12.07.2023 16:44 25,8 C 28,9 C 21,7 C 50 % 1012,6 hPa 0,0 l/m 2 min 0 min 721 W/m 16,1 km/h (3 Bft) 95,74 %
12.07.2023 16:46 26,0 C 29,4 C 21,7 C 51 % 1012,6 hPa 0,0 l/m 2 min 0 min 717 W/m 16,1 km/h (3 Bft) 100,00 %
12.07.2023 16:48 25,9 C 28,9 C 21,7 C 50 % 1012,6 hPa 0,0 l/m 2 min 0 min 715 W/m 19,3 km/h (3 Bft) 100,00 %
12.07.2023 16:50 25,9 C 29,4 C 21,7 C 51 % 1012,6 hPa 0,0 l/m 2 min 0 min 712 W/m 19,3 km/h (3 Bft) 100,00 %
12.07.2023 16:52 25,9 C 29,4 C 21,7 C 49 % 1012,5 hPa 0,0 l/m 2 min 0 min 687 W/m 16,1 km/h (3 Bft) 97,87 %
12.07.2023 16:54 25,9 C 30,0 C 21,7 C 50 % 1012,5 hPa 0,0 l/m 2 min 0 min 699 W/m 12,9 km/h (3 Bft) 100,00 %
12.07.2023 16:56 26,0 C 29,4 C 21,7 C 51 % 1012,6 hPa 0,0 l/m 2 min 0 min 702 W/m 22,5 km/h (4 Bft) 100,00 %
12.07.2023 16:58 25,9 C 28,3 C 21,7 C 50 % 1012,7 hPa 0,0 l/m 2 min 0 min 707 W/m 19,3 km/h (3 Bft) 95,74 %
12.07.2023 17:00 25,8 C 28,3 C 21,7 C 50 % 1012,7 hPa 0,0 l/m 2 min 0 min 695 W/m 32,2 km/h (5 Bft) 97,83 %
12.07.2023 17:02 25,8 C 28,9 C 21,7 C 50 % 1012,7 hPa 0,0 l/m 2 min 0 min 672 W/m 16,1 km/h (3 Bft) 97,87 %
12.07.2023 17:04 25,8 C 28,9 C 21,7 C 50 % 1012,6 hPa 0,0 l/m 2 min 0 min 684 W/m 16,1 km/h (3 Bft) 97,87 %
12.07.2023 17:06 25,8 C 28,9 C 21,7 C 50 % 1012,7 hPa 0,0 l/m 2 min 0 min 667 W/m 16,1 km/h (3 Bft) 96,61 %
12.07.2023 17:08 25,8 C 28,3 C 21,7 C 50 % 1012,6 hPa 0,0 l/m 2 min 0 min 676 W/m 19,3 km/h (3 Bft) 94,29 %
12.07.2023 17:10 25,8 C 28,9 C 21,7 C 50 % 1012,6 hPa 0,0 l/m 2 min 0 min 696 W/m 16,1 km/h (3 Bft) 95,74 %
12.07.2023 17:12 25,8 C 28,3 C 21,7 C 50 % 1012,6 hPa 0,0 l/m 2 min 0 min 687 W/m 22,5 km/h (4 Bft) 95,74 %
12.07.2023 17:14 25,8 C 28,3 C 21,7 C 50 % 1012,6 hPa 0,0 l/m 0 min 0 min 303 W/m 9,7 km/h (2 Bft) 95,65 %
12.07.2023 17:16 25,8 C 28,9 C 21,7 C 50 % 1012,6 hPa 0,0 l/m 0 min 0 min 284 W/m 12,9 km/h (3 Bft) 95,74 %
12.07.2023 17:18 25,9 C 29,4 C 21,7 C 51 % 1012,6 hPa 0,0 l/m 2 min 0 min 676 W/m 16,1 km/h (3 Bft) 95,74 %
12.07.2023 17:20 25,9 C 29,4 C 22,2 C 50 % 1012,6 hPa 0,0 l/m 2 min 0 min 665 W/m 19,3 km/h (3 Bft) 95,74 %
12.07.2023 17:22 26,0 C 29,4 C 22,2 C 50 % 1012,7 hPa 0,0 l/m 2 min 0 min 658 W/m 16,1 km/h (3 Bft) 95,74 %
12.07.2023 17:24 25,9 C 28,9 C 21,7 C 50 % 1012,7 hPa 0,0 l/m 2 min 0 min 662 W/m 22,5 km/h (4 Bft) 91,49 %
12.07.2023 17:26 25,8 C 28,3 C 21,7 C 49 % 1012,7 hPa 0,0 l/m 2 min 0 min 666 W/m 22,5 km/h (4 Bft) 95,65 %
12.07.2023 17:28 25,7 C 28,3 C 21,7 C 50 % 1012,7 hPa 0,0 l/m 2 min 0 min 653 W/m 19,3 km/h (3 Bft) 95,74 %
12.07.2023 17:30 25,7 C 28,9 C 21,7 C 50 % 1012,6 hPa 0,0 l/m 2 min 0 min 641 W/m 12,9 km/h (3 Bft) 93,62 %
12.07.2023 17:32 25,7 C 28,9 C 21,7 C 49 % 1012,6 hPa 0,0 l/m 2 min 0 min 639 W/m 19,3 km/h (3 Bft) 95,74 %
12.07.2023 17:34 25,7 C 28,9 C 21,7 C 50 % 1012,7 hPa 0,0 l/m 2 min 0 min 626 W/m 16,1 km/h (3 Bft) 95,74 %
12.07.2023 17:36 25,7 C 28,3 C 21,7 C 49 % 1012,6 hPa 0,0 l/m 2 min 0 min 626 W/m 12,9 km/h (3 Bft) 93,62 %
12.07.2023 17:38 25,7 C 28,3 C 21,7 C 50 % 1012,5 hPa 0,0 l/m 2 min 0 min 598 W/m 12,9 km/h (3 Bft) 93,62 %
12.07.2023 17:40 25,8 C 28,3 C 21,7 C 50 % 1012,6 hPa 0,0 l/m 2 min 0 min 578 W/m 16,1 km/h (3 Bft) 95,65 %
12.07.2023 17:42 25,7 C 27,8 C 21,7 C 50 % 1012,6 hPa 0,0 l/m 2 min 0 min 544 W/m 22,5 km/h (4 Bft) 93,62 %
12.07.2023 17:44 25,6 C 27,2 C 21,7 C 50 % 1012,6 hPa 0,0 l/m 2 min 0 min 368 W/m 19,3 km/h (3 Bft) 95,74 %
12.07.2023 17:46 25,5 C 27,8 C 21,7 C 51 % 1012,6 hPa 0,0 l/m 2 min 0 min 455 W/m 12,9 km/h (3 Bft) 95,74 %
12.07.2023 17:48 25,5 C 28,3 C 21,7 C 51 % 1012,7 hPa 0,0 l/m 2 min 0 min 627 W/m 12,9 km/h (3 Bft) 95,74 %
12.07.2023 17:50 25,5 C 28,9 C 21,7 C 51 % 1012,5 hPa 0,0 l/m 2 min 0 min 585 W/m 6,4 km/h (2 Bft) 97,87 %
12.07.2023 17:52 25,6 C 28,9 C 21,7 C 51 % 1012,6 hPa 0,0 l/m 2 min 0 min 604 W/m 19,3 km/h (3 Bft) 97,83 %
12.07.2023 17:54 25,6 C 26,7 C 21,7 C 50 % 1012,5 hPa 0,0 l/m 2 min 0 min 465 W/m 25,7 km/h (4 Bft) 97,87 %
12.07.2023 17:56 25,4 C 26,7 C 21,1 C 51 % 1012,6 hPa 0,0 l/m 0 min 0 min 165 W/m 12,9 km/h (3 Bft) 100,00 %
12.07.2023 17:58 25,4 C 27,8 C 21,7 C 51 % 1012,5 hPa 0,0 l/m 2 min 0 min 435 W/m 12,9 km/h (3 Bft) 100,00 %
12.07.2023 18:00 25,4 C 27,8 C 21,7 C 50 % 1012,7 hPa 0,0 l/m 2 min 0 min 567 W/m 19,3 km/h (3 Bft) 97,87 %
12.07.2023 18:02 25,4 C 28,3 C 21,7 C 51 % 1012,5 hPa 0,0 l/m 2 min 0 min 574 W/m 16,1 km/h (3 Bft) 97,87 %
12.07.2023 18:04 25,4 C 28,3 C 21,7 C 50 % 1012,5 hPa 0,0 l/m 2 min 0 min 573 W/m 25,7 km/h (4 Bft) 100,00 %
12.07.2023 18:07 25,4 C 26,7 C 21,7 C 51 % 1012,6 hPa 0,0 l/m 3 min 0 min 425 W/m 16,1 km/h (3 Bft) 95,51 %
12.07.2023 18:08 25,4 C 26,7 C 21,7 C 51 % 1012,6 hPa 0,0 l/m 0 min 0 min 151 W/m 6,4 km/h (2 Bft) 90,91 %
12.07.2023 18:12 25,2 C 25,0 C 21,1 C 51 % 1012,5 hPa 0,0 l/m 0 min 0 min 130 W/m 6,4 km/h (2 Bft) 98,31 %
12.07.2023 18:14 25,1 C 24,4 C 21,1 C 52 % 1012,6 hPa 0,0 l/m 0 min 0 min 123 W/m 12,9 km/h (3 Bft) 95,74 %
12.07.2023 18:16 24,9 C 24,4 C 20,6 C 52 % 1012,6 hPa 0,0 l/m 0 min 0 min 134 W/m 12,9 km/h (3 Bft) 97,87 %
12.07.2023 18:18 24,8 C 25,0 C 20,6 C 53 % 1012,5 hPa 0,0 l/m 0 min 0 min 141 W/m 12,9 km/h (3 Bft) 97,14 %
12.07.2023 18:20 24,8 C 25,0 C 20,6 C 53 % 1012,6 hPa 0,0 l/m 0 min 0 min 135 W/m 16,1 km/h (3 Bft) 98,15 %
12.07.2023 18:22 24,7 C 24,4 C 20,6 C 52 % 1012,6 hPa 0,0 l/m 0 min 0 min 171 W/m 12,9 km/h (3 Bft) 97,87 %
12.07.2023 18:24 24,6 C 24,4 C 20,6 C 53 % 1012,6 hPa 0,0 l/m 0 min 0 min 142 W/m 16,1 km/h (3 Bft) 95,74 %
12.07.2023 18:26 24,6 C 25,0 C 20,6 C 53 % 1012,8 hPa 0,0 l/m 0 min 0 min 173 W/m 16,1 km/h (3 Bft) 97,87 %
12.07.2023 18:28 24,5 C 26,1 C 20,6 C 52 % 1012,6 hPa 0,0 l/m 2 min 0 min 489 W/m 25,7 km/h (4 Bft) 97,87 %
12.07.2023 18:30 24,6 C 27,2 C 21,1 C 53 % 1012,6 hPa 0,0 l/m 2 min 0 min 477 W/m 19,3 km/h (3 Bft) 97,83 %
12.07.2023 18:32 24,7 C 27,8 C 21,1 C 53 % 1012,7 hPa 0,0 l/m 2 min 0 min 458 W/m 16,1 km/h (3 Bft) 97,87 %
12.07.2023 18:34 24,8 C 27,8 C 21,1 C 53 % 1012,8 hPa 0,0 l/m 2 min 0 min 443 W/m 16,1 km/h (3 Bft) 95,74 %
12.07.2023 18:36 24,8 C 27,2 C 21,1 C 53 % 1012,7 hPa 0,0 l/m 2 min 0 min 381 W/m 9,7 km/h (2 Bft) 97,87 %
12.07.2023 18:38 24,9 C 27,8 C 21,1 C 53 % 1012,7 hPa 0,0 l/m 2 min 0 min 329 W/m 12,9 km/h (3 Bft) 97,87 %
12.07.2023 18:40 24,9 C 27,2 C 21,1 C 55 % 1012,7 hPa 0,0 l/m 2 min 0 min 420 W/m 16,1 km/h (3 Bft) 97,87 %
12.07.2023 18:42 24,8 C 26,1 C 21,1 C 55 % 1012,7 hPa 0,0 l/m 2 min 0 min 296 W/m 12,9 km/h (3 Bft) 100,00 %
12.07.2023 18:44 24,8 C 26,7 C 20,6 C 56 % 1012,7 hPa 0,0 l/m 2 min 0 min 278 W/m 12,9 km/h (3 Bft) 100,00 %
12.07.2023 18:46 24,7 C 27,8 C 21,1 C 57 % 1012,8 hPa 0,0 l/m 2 min 0 min 415 W/m 12,9 km/h (3 Bft) 100,00 %
12.07.2023 18:48 24,8 C 28,3 C 21,1 C 57 % 1012,7 hPa 0,0 l/m 2 min 0 min 404 W/m 22,5 km/h (4 Bft) 100,00 %
12.07.2023 18:50 24,8 C 28,3 C 21,1 C 57 % 1012,7 hPa 0,0 l/m 2 min 0 min 406 W/m 9,7 km/h (2 Bft) 100,00 %
12.07.2023 18:52 24,9 C 29,4 C 21,1 C 58 % 1012,7 hPa 0,0 l/m 2 min 0 min 394 W/m 9,7 km/h (2 Bft) 100,00 %
12.07.2023 18:54 25,0 C 29,4 C 21,1 C 57 % 1012,8 hPa 0,0 l/m 2 min 0 min 388 W/m 12,9 km/h (3 Bft) 100,00 %
12.07.2023 18:56 25,1 C 29,4 C 21,1 C 57 % 1012,7 hPa 0,0 l/m 2 min 0 min 399 W/m 9,7 km/h (2 Bft) 100,00 %
12.07.2023 18:58 25,2 C 30,0 C 21,7 C 57 % 1012,7 hPa 0,0 l/m 2 min 0 min 405 W/m 12,9 km/h (3 Bft) 100,00 %
12.07.2023 19:00 25,3 C 30,0 C 21,7 C 57 % 1012,8 hPa 0,0 l/m 2 min 0 min 424 W/m 9,7 km/h (2 Bft) 100,00 %
12.07.2023 19:02 25,3 C 29,4 C 21,7 C 56 % 1012,8 hPa 0,0 l/m 2 min 0 min 420 W/m 16,1 km/h (3 Bft) 100,00 %
12.07.2023 19:04 25,3 C 29,4 C 21,7 C 56 % 1012,8 hPa 0,0 l/m 2 min 0 min 388 W/m 9,7 km/h (2 Bft) 100,00 %
12.07.2023 19:06 25,4 C 28,9 C 21,7 C 56 % 1012,8 hPa 0,0 l/m 2 min 0 min 380 W/m 16,1 km/h (3 Bft) 100,00 %
12.07.2023 19:08 25,4 C 27,2 C 21,7 C 56 % 1012,8 hPa 0,0 l/m 0 min 0 min 162 W/m 22,5 km/h (4 Bft) 97,87 %
12.07.2023 19:10 25,4 C 26,1 C 21,1 C 56 % 1012,7 hPa 0,0 l/m 0 min 0 min 130 W/m 12,9 km/h (3 Bft) 100,00 %
12.07.2023 19:12 25,3 C 26,1 C 20,6 C 56 % 1012,8 hPa 0,0 l/m 0 min 0 min 139 W/m 16,1 km/h (3 Bft) 100,00 %
12.07.2023 19:14 25,2 C 25,6 C 20,6 C 55 % 1012,7 hPa 0,0 l/m 0 min 0 min 129 W/m 16,1 km/h (3 Bft) 100,00 %
12.07.2023 19:16 25,2 C 25,6 C 20,6 C 56 % 1012,8 hPa 0,0 l/m 0 min 0 min 148 W/m 16,1 km/h (3 Bft) 100,00 %
12.07.2023 19:18 25,1 C 25,0 C 20,6 C 56 % 1012,8 hPa 0,0 l/m 0 min 0 min 124 W/m 9,7 km/h (2 Bft) 100,00 %
12.07.2023 19:20 24,9 C 24,4 C 20,0 C 57 % 1012,8 hPa 0,0 l/m 0 min 0 min 114 W/m 12,9 km/h (3 Bft) 100,00 %
12.07.2023 19:22 24,9 C 24,4 C 20,0 C 57 % 1012,8 hPa 0,0 l/m 0 min 0 min 113 W/m 12,9 km/h (3 Bft) 100,00 %
12.07.2023 19:24 24,8 C 23,9 C 20,0 C 57 % 1012,8 hPa 0,0 l/m 0 min 0 min 101 W/m 9,7 km/h (2 Bft) 97,83 %
12.07.2023 19:26 24,7 C 23,9 C 20,0 C 57 % 1012,8 hPa 0,0 l/m 0 min 0 min 91 W/m 16,1 km/h (3 Bft) 95,74 %
12.07.2023 19:28 24,6 C 23,3 C 20,0 C 58 % 1012,9 hPa 0,0 l/m 0 min 0 min 74 W/m 16,1 km/h (3 Bft) 97,87 %
12.07.2023 19:30 24,4 C 23,3 C 19,4 C 58 % 1012,8 hPa 0,0 l/m 0 min 0 min 59 W/m 22,5 km/h (4 Bft) 100,00 %
12.07.2023 19:32 24,3 C 22,8 C 19,4 C 58 % 1012,8 hPa 0,0 l/m 0 min 0 min 53 W/m 16,1 km/h (3 Bft) 93,62 %
12.07.2023 19:34 24,2 C 22,8 C 18,9 C 59 % 1012,9 hPa 0,0 l/m 0 min 0 min 47 W/m 16,1 km/h (3 Bft) 100,00 %
12.07.2023 19:36 24,1 C 22,8 C 18,9 C 60 % 1012,9 hPa 0,0 l/m 0 min 0 min 44 W/m 12,9 km/h (3 Bft) 97,83 %
12.07.2023 19:38 24,0 C 22,8 C 18,9 C 60 % 1012,9 hPa 0,0 l/m 0 min 0 min 42 W/m 12,9 km/h (3 Bft) 100,00 %
12.07.2023 19:40 23,9 C 22,8 C 18,9 C 60 % 1012,9 hPa 0,0 l/m 0 min 0 min 51 W/m 19,3 km/h (3 Bft) 97,87 %
12.07.2023 19:42 23,8 C 22,8 C 18,9 C 60 % 1012,9 hPa 0,0 l/m 0 min 0 min 133 W/m 16,1 km/h (3 Bft) 95,74 %
12.07.2023 19:44 23,7 C 22,8 C 18,9 C 61 % 1012,9 hPa 0,0 l/m 2 min 0 min 167 W/m 22,5 km/h (4 Bft) 97,87 %
12.07.2023 19:46 23,6 C 22,8 C 18,9 C 60 % 1013,0 hPa 0,0 l/m 2 min 0 min 158 W/m 22,5 km/h (4 Bft) 93,62 %
12.07.2023 19:48 23,5 C 22,8 C 18,9 C 61 % 1012,9 hPa 0,0 l/m 0 min 0 min 82 W/m 19,3 km/h (3 Bft) 97,87 %
12.07.2023 19:50 23,4 C 22,8 C 18,9 C 61 % 1012,9 hPa 0,0 l/m 0 min 0 min 97 W/m 12,9 km/h (3 Bft) 95,65 %
12.07.2023 19:52 23,4 C 22,8 C 18,9 C 61 % 1012,9 hPa 0,0 l/m 0 min 0 min 107 W/m 16,1 km/h (3 Bft) 97,87 %
12.07.2023 19:54 23,3 C 22,8 C 18,9 C 61 % 1013,0 hPa 0,0 l/m 0 min 0 min 99 W/m 16,1 km/h (3 Bft) 97,87 %
12.07.2023 19:56 23,3 C 22,8 C 18,9 C 62 % 1013,0 hPa 0,0 l/m 0 min 0 min 86 W/m 12,9 km/h (3 Bft) 96,00 %
12.07.2023 19:58 23,3 C 22,8 C 18,9 C 63 % 1013,1 hPa 0,0 l/m 0 min 0 min 78 W/m 16,1 km/h (3 Bft) 91,49 %
12.07.2023 20:00 23,3 C 22,8 C 18,9 C 63 % 1013,1 hPa 0,0 l/m 0 min 0 min 84 W/m 16,1 km/h (3 Bft) 97,87 %
12.07.2023 20:02 23,2 C 22,8 C 18,9 C 63 % 1013,1 hPa 0,0 l/m 0 min 0 min 83 W/m 9,7 km/h (2 Bft) 97,83 %
12.07.2023 20:04 23,2 C 22,8 C 18,9 C 64 % 1013,0 hPa 0,0 l/m 0 min 0 min 83 W/m 9,7 km/h (2 Bft) 95,74 %
12.07.2023 20:06 23,2 C 22,8 C 18,9 C 63 % 1013,0 hPa 0,0 l/m 0 min 0 min 94 W/m 9,7 km/h (2 Bft) 96,00 %
12.07.2023 20:08 23,1 C 22,8 C 18,9 C 63 % 1013,1 hPa 0,0 l/m 0 min 0 min 100 W/m 12,9 km/h (3 Bft) 94,44 %
12.07.2023 20:10 23,1 C 22,8 C 18,9 C 64 % 1013,1 hPa 0,0 l/m 0 min 0 min 103 W/m 12,9 km/h (3 Bft) 95,74 %
12.07.2023 20:12 23,1 C 22,8 C 18,9 C 63 % 1013,1 hPa 0,0 l/m 2 min 0 min 104 W/m 12,9 km/h (3 Bft) 95,74 %
12.07.2023 20:14 23,1 C 22,8 C 18,9 C 64 % 1013,1 hPa 0,0 l/m 2 min 0 min 103 W/m 16,1 km/h (3 Bft) 91,30 %
12.07.2023 20:16 23,1 C 22,8 C 18,9 C 63 % 1013,1 hPa 0,0 l/m 2 min 0 min 102 W/m 6,4 km/h (2 Bft) 91,49 %
12.07.2023 20:18 23,1 C 22,8 C 18,9 C 63 % 1013,2 hPa 0,0 l/m 2 min 0 min 102 W/m 3,2 km/h (1 Bft) 93,62 %
12.07.2023 20:20 23,1 C 22,8 C 18,9 C 63 % 1013,2 hPa 0,0 l/m 2 min 0 min 101 W/m 12,9 km/h (3 Bft) 91,49 %
12.07.2023 20:22 23,1 C 22,2 C 18,9 C 64 % 1013,3 hPa 0,0 l/m 2 min 0 min 97 W/m 9,7 km/h (2 Bft) 91,49 %
12.07.2023 20:24 23,0 C 22,2 C 18,9 C 64 % 1013,2 hPa 0,0 l/m 0 min 0 min 85 W/m 19,3 km/h (3 Bft) 95,74 %
12.07.2023 20:26 23,0 C 22,2 C 18,3 C 63 % 1013,3 hPa 0,0 l/m 0 min 0 min 77 W/m 12,9 km/h (3 Bft) 95,74 %
12.07.2023 20:28 22,9 C 22,2 C 18,3 C 63 % 1013,3 hPa 0,0 l/m 0 min 0 min 71 W/m 6,4 km/h (2 Bft) 95,65 %
12.07.2023 20:30 22,9 C 22,2 C 18,3 C 63 % 1013,4 hPa 0,0 l/m 0 min 0 min 64 W/m 9,7 km/h (2 Bft) 95,74 %
12.07.2023 20:32 22,9 C 22,2 C 18,3 C 62 % 1013,4 hPa 0,0 l/m 0 min 0 min 61 W/m 12,9 km/h (3 Bft) 93,62 %
12.07.2023 20:34 22,8 C 22,2 C 18,3 C 62 % 1013,4 hPa 0,0 l/m 0 min 0 min 62 W/m 9,7 km/h (2 Bft) 95,74 %
12.07.2023 20:36 22,8 C 22,2 C 18,3 C 63 % 1013,3 hPa 0,0 l/m 0 min 0 min 64 W/m 9,7 km/h (2 Bft) 95,74 %
12.07.2023 20:38 22,7 C 22,2 C 18,3 C 63 % 1013,4 hPa 0,0 l/m 0 min 0 min 62 W/m 16,1 km/h (3 Bft) 95,74 %
12.07.2023 20:40 22,7 C 22,2 C 18,3 C 63 % 1013,4 hPa 0,0 l/m 0 min 0 min 62 W/m 9,7 km/h (2 Bft) 97,83 %
12.07.2023 20:42 22,7 C 22,2 C 18,3 C 63 % 1013,4 hPa 0,0 l/m 0 min 0 min 62 W/m 9,7 km/h (2 Bft) 95,74 %
12.07.2023 20:44 22,7 C 22,2 C 18,3 C 63 % 1013,4 hPa 0,0 l/m 0 min 0 min 57 W/m 6,4 km/h (2 Bft) 97,87 %
12.07.2023 20:46 22,6 C 21,7 C 18,3 C 63 % 1013,4 hPa 0,0 l/m 0 min 0 min 53 W/m 6,4 km/h (2 Bft) 97,87 %
12.07.2023 20:48 22,6 C 21,7 C 18,3 C 63 % 1013,4 hPa 0,0 l/m 0 min 0 min 52 W/m 9,7 km/h (2 Bft) 95,74 %
12.07.2023 20:50 22,6 C 21,7 C 17,8 C 63 % 1013,4 hPa 0,0 l/m 0 min 0 min 51 W/m 9,7 km/h (2 Bft) 97,87 %
12.07.2023 20:52 22,5 C 21,7 C 17,8 C 63 % 1013,4 hPa 0,0 l/m 0 min 0 min 48 W/m 16,1 km/h (3 Bft) 97,87 %
12.07.2023 20:54 22,4 C 21,1 C 17,8 C 63 % 1013,5 hPa 0,0 l/m 0 min 0 min 45 W/m 12,9 km/h (3 Bft) 98,00 %
12.07.2023 20:56 22,4 C 21,1 C 17,8 C 63 % 1013,4 hPa 0,0 l/m 0 min 0 min 42 W/m 6,4 km/h (2 Bft) 97,87 %
12.07.2023 20:58 22,3 C 21,1 C 17,8 C 63 % 1013,5 hPa 0,0 l/m 0 min 0 min 41 W/m 16,1 km/h (3 Bft) 97,87 %
12.07.2023 21:00 22,3 C 21,1 C 17,8 C 63 % 1013,5 hPa 0,0 l/m 0 min 0 min 41 W/m 6,4 km/h (2 Bft) 97,87 %
12.07.2023 21:02 22,2 C 21,1 C 17,8 C 63 % 1013,5 hPa 0,0 l/m 0 min 0 min 37 W/m 9,7 km/h (2 Bft) 97,87 %
12.07.2023 21:04 22,2 C 21,1 C 17,8 C 64 % 1013,4 hPa 0,0 l/m 0 min 0 min 34 W/m 9,7 km/h (2 Bft) 100,00 %
12.07.2023 21:06 22,1 C 21,1 C 17,2 C 64 % 1013,4 hPa 0,0 l/m 0 min 0 min 33 W/m 3,2 km/h (1 Bft) 100,00 %
12.07.2023 21:08 22,1 C 21,1 C 17,2 C 64 % 1013,4 hPa 0,0 l/m 0 min 0 min 31 W/m 9,7 km/h (2 Bft) 100,00 %
12.07.2023 21:10 22,1 C 21,1 C 17,2 C 64 % 1013,4 hPa 0,0 l/m 0 min 0 min 28 W/m 6,4 km/h (2 Bft) 97,87 %
12.07.2023 21:12 22,1 C 21,1 C 17,2 C 65 % 1013,4 hPa 0,0 l/m 0 min 0 min 26 W/m 6,4 km/h (2 Bft) 100,00 %
12.07.2023 21:14 22,1 C 21,1 C 17,2 C 65 % 1013,5 hPa 0,0 l/m 0 min 0 min 25 W/m 6,4 km/h (2 Bft) 100,00 %
12.07.2023 21:16 22,0 C 20,6 C 17,2 C 65 % 1013,5 hPa 0,0 l/m 0 min 0 min 24 W/m 3,2 km/h (1 Bft) 100,00 %
12.07.2023 21:18 21,9 C 20,6 C 17,2 C 65 % 1013,5 hPa 0,0 l/m 0 min 0 min 21 W/m 6,4 km/h (2 Bft) 100,00 %
12.07.2023 21:20 21,9 C 20,6 C 17,2 C 65 % 1013,5 hPa 0,0 l/m 0 min 0 min 19 W/m 6,4 km/h (2 Bft) 100,00 %
12.07.2023 21:22 21,8 C 20,6 C 17,2 C 65 % 1013,5 hPa 0,0 l/m 0 min 0 min 19 W/m 6,4 km/h (2 Bft) 100,00 %
12.07.2023 21:24 21,8 C 20,6 C 17,2 C 66 % 1013,5 hPa 0,0 l/m 0 min 0 min 18 W/m 3,2 km/h (1 Bft) 100,00 %
12.07.2023 21:26 21,8 C 20,6 C 17,2 C 66 % 1013,5 hPa 0,0 l/m 0 min 0 min 18 W/m 3,2 km/h (1 Bft) 100,00 %
12.07.2023 21:28 21,8 C 20,6 C 17,2 C 66 % 1013,5 hPa 0,0 l/m 0 min 0 min 16 W/m 6,4 km/h (2 Bft) 100,00 %
12.07.2023 21:30 21,7 C 20,0 C 17,2 C 66 % 1013,5 hPa 0,0 l/m 0 min 0 min 13 W/m 3,2 km/h (1 Bft) 100,00 %
12.07.2023 21:32 21,7 C 20,0 C 16,7 C 67 % 1013,5 hPa 0,0 l/m 0 min 0 min 12 W/m 3,2 km/h (1 Bft) 97,83 %
12.07.2023 21:34 21,6 C 20,0 C 16,7 C 67 % 1013,5 hPa 0,0 l/m 0 min 0 min 10 W/m 6,4 km/h (2 Bft) 97,87 %
12.07.2023 21:36 21,6 C 20,0 C 16,7 C 67 % 1013,5 hPa 0,0 l/m 0 min 0 min 9 W/m 6,4 km/h (2 Bft) 100,00 %
12.07.2023 21:38 21,6 C 20,0 C 16,7 C 67 % 1013,5 hPa 0,0 l/m 0 min 0 min 9 W/m 3,2 km/h (1 Bft) 100,00 %
12.07.2023 21:40 21,5 C 20,0 C 16,7 C 67 % 1013,5 hPa 0,0 l/m 0 min 0 min 7 W/m 3,2 km/h (1 Bft) 100,00 %
12.07.2023 21:42 21,4 C 20,0 C 16,7 C 68 % 1013,6 hPa 0,0 l/m 0 min 0 min 6 W/m 3,2 km/h (1 Bft) 100,00 %
12.07.2023 21:44 21,4 C 20,0 C 16,7 C 68 % 1013,6 hPa 0,0 l/m 0 min 0 min 5 W/m 0,0 km/h (0 Bft) 97,83 %
12.07.2023 21:46 21,4 C 20,0 C 16,7 C 68 % 1013,7 hPa 0,0 l/m 0 min 0 min 0 W/m 3,2 km/h (1 Bft) 100,00 %
12.07.2023 21:48 21,4 C 20,0 C 16,7 C 69 % 1013,6 hPa 0,0 l/m 0 min 0 min 0 W/m 0,0 km/h (0 Bft) 100,00 %
12.07.2023 21:50 21,3 C 20,0 C 16,7 C 69 % 1013,7 hPa 0,0 l/m 0 min 0 min 0 W/m 0,0 km/h (0 Bft) 100,00 %
12.07.2023 21:52 21,3 C 19,4 C 16,7 C 69 % 1013,6 hPa 0,0 l/m 0 min 0 min 0 W/m 0,0 km/h (0 Bft) 100,00 %
12.07.2023 21:54 21,3 C 19,4 C 16,1 C 69 % 1013,6 hPa 0,0 l/m 0 min 0 min 0 W/m 0,0 km/h (0 Bft) 100,00 %
12.07.2023 21:56 21,2 C 19,4 C 16,1 C 69 % 1013,7 hPa 0,0 l/m 0 min 0 min 0 W/m 0,0 km/h (0 Bft) 100,00 %
12.07.2023 21:58 21,2 C 19,4 C 16,1 C 69 % 1013,7 hPa 0,0 l/m 0 min 0 min 0 W/m 0,0 km/h (0 Bft) 100,00 %
12.07.2023 22:00 21,1 C 19,4 C 16,1 C 70 % 1013,7 hPa 0,0 l/m 0 min 0 min 0 W/m 0,0 km/h (0 Bft) 97,87 %
12.07.2023 22:02 21,1 C 19,4 C 16,1 C 70 % 1013,7 hPa 0,0 l/m 0 min 0 min 0 W/m 0,0 km/h (0 Bft) 95,74 %
12.07.2023 22:04 21,1 C 19,4 C 16,1 C 70 % 1013,7 hPa 0,0 l/m 0 min 0 min 0 W/m 0,0 km/h (0 Bft) 97,87 %
12.07.2023 22:06 20,9 C 18,9 C 16,1 C 70 % 1013,8 hPa 0,0 l/m 0 min 0 min 0 W/m 0,0 km/h (0 Bft) 97,87 %
12.07.2023 22:08 20,9 C 18,9 C 16,1 C 70 % 1013,8 hPa 0,0 l/m 0 min 0 min 0 W/m 0,0 km/h (0 Bft) 97,87 %
12.07.2023 22:10 20,8 C 18,9 C 16,1 C 70 % 1013,8 hPa 0,0 l/m 0 min 0 min 0 W/m 0,0 km/h (0 Bft) 97,87 %
12.07.2023 22:12 20,8 C 18,9 C 16,1 C 71 % 1013,8 hPa 0,0 l/m 0 min 0 min 0 W/m 0,0 km/h (0 Bft) 97,87 %
12.07.2023 22:14 20,7 C 18,9 C 16,1 C 71 % 1013,7 hPa 0,0 l/m 0 min 0 min 0 W/m 0,0 km/h (0 Bft) 97,87 %
12.07.2023 22:16 20,7 C 18,9 C 16,1 C 71 % 1013,8 hPa 0,0 l/m 0 min 0 min 0 W/m 0,0 km/h (0 Bft) 97,83 %
12.07.2023 22:18 20,6 C 18,9 C 15,6 C 71 % 1013,8 hPa 0,0 l/m 0 min 0 min 0 W/m 0,0 km/h (0 Bft) 97,87 %
12.07.2023 22:20 20,6 C 18,9 C 15,6 C 71 % 1013,8 hPa 0,0 l/m 0 min 0 min 0 W/m 0,0 km/h (0 Bft) 97,87 %
12.07.2023 22:22 20,5 C 18,9 C 15,6 C 72 % 1013,9 hPa 0,0 l/m 0 min 0 min 0 W/m 0,0 km/h (0 Bft) 97,87 %
12.07.2023 22:24 20,4 C 18,9 C 15,6 C 73 % 1013,9 hPa 0,0 l/m 0 min 0 min 0 W/m 0,0 km/h (0 Bft) 95,74 %
12.07.2023 22:26 20,4 C 18,9 C 15,6 C 73 % 1013,9 hPa 0,0 l/m 0 min 0 min 0 W/m 0,0 km/h (0 Bft) 95,74 %
12.07.2023 22:28 20,3 C 18,3 C 15,6 C 73 % 1014,0 hPa 0,0 l/m 0 min 0 min 0 W/m 0,0 km/h (0 Bft) 93,62 %
12.07.2023 22:30 20,3 C 18,3 C 15,6 C 73 % 1014,0 hPa 0,0 l/m 0 min 0 min 0 W/m 3,2 km/h (1 Bft) 95,74 %
12.07.2023 22:32 20,3 C 18,3 C 15,0 C 73 % 1014,0 hPa 0,0 l/m 0 min 0 min 0 W/m 3,2 km/h (1 Bft) 97,87 %
12.07.2023 22:34 20,2 C 18,3 C 15,6 C 73 % 1014,0 hPa 0,0 l/m 0 min 0 min 0 W/m 0,0 km/h (0 Bft) 95,74 %
12.07.2023 22:36 20,1 C 18,3 C 15,6 C 73 % 1014,1 hPa 0,0 l/m 0 min 0 min 0 W/m 3,2 km/h (1 Bft) 97,87 %
12.07.2023 22:38 20,1 C 18,3 C 15,6 C 73 % 1014,1 hPa 0,0 l/m 0 min 0 min 0 W/m 0,0 km/h (0 Bft) 97,83 %
12.07.2023 22:40 20,1 C 18,3 C 15,0 C 73 % 1014,0 hPa 0,0 l/m 0 min 0 min 0 W/m 0,0 km/h (0 Bft) 97,87 %
12.07.2023 22:42 20,0 C 18,3 C 15,0 C 73 % 1014,1 hPa 0,0 l/m 0 min 0 min 0 W/m 0,0 km/h (0 Bft) 97,87 %
12.07.2023 22:44 19,9 C 18,3 C 15,0 C 73 % 1014,2 hPa 0,0 l/m 0 min 0 min 0 W/m 0,0 km/h (0 Bft) 97,87 %
12.07.2023 22:46 19,9 C 18,3 C 15,0 C 73 % 1014,2 hPa 0,0 l/m 0 min 0 min 0 W/m 0,0 km/h (0 Bft) 97,87 %
12.07.2023 22:48 19,8 C 18,3 C 15,0 C 74 % 1014,2 hPa 0,0 l/m 0 min 0 min 0 W/m 0,0 km/h (0 Bft) 97,87 %
12.07.2023 22:50 19,8 C 18,3 C 15,0 C 74 % 1014,2 hPa 0,0 l/m 0 min 0 min 0 W/m 3,2 km/h (1 Bft) 95,74 %
12.07.2023 22:52 19,8 C 18,3 C 15,0 C 74 % 1014,2 hPa 0,0 l/m 0 min 0 min 0 W/m 3,2 km/h (1 Bft) 95,65 %
12.07.2023 22:54 19,7 C 18,3 C 15,0 C 74 % 1014,3 hPa 0,0 l/m 0 min 0 min 0 W/m 3,2 km/h (1 Bft) 97,87 %
12.07.2023 22:56 19,7 C 18,9 C 15,6 C 73 % 1014,3 hPa 0,0 l/m 0 min 0 min 0 W/m 16,1 km/h (3 Bft) 97,87 %
12.07.2023 22:58 19,7 C 18,9 C 15,6 C 71 % 1014,2 hPa 0,0 l/m 0 min 0 min 0 W/m 6,4 km/h (2 Bft) 97,87 %
12.07.2023 23:00 19,7 C 18,9 C 15,6 C 70 % 1014,2 hPa 0,0 l/m 0 min 0 min 0 W/m 12,9 km/h (3 Bft) 95,74 %
12.07.2023 23:02 19,7 C 18,9 C 15,6 C 70 % 1014,3 hPa 0,0 l/m 0 min 0 min 0 W/m 6,4 km/h (2 Bft) 97,87 %
12.07.2023 23:04 19,7 C 18,9 C 15,6 C 70 % 1014,3 hPa 0,0 l/m 0 min 0 min 0 W/m 6,4 km/h (2 Bft) 95,74 %
12.07.2023 23:06 19,7 C 18,9 C 16,1 C 70 % 1014,3 hPa 0,0 l/m 0 min 0 min 0 W/m 9,7 km/h (2 Bft) 95,74 %
12.07.2023 23:08 19,7 C 18,9 C 16,1 C 70 % 1014,3 hPa 0,0 l/m 0 min 0 min 0 W/m 6,4 km/h (2 Bft) 93,62 %
12.07.2023 23:10 19,7 C 18,9 C 16,1 C 70 % 1014,3 hPa 0,0 l/m 0 min 0 min 0 W/m 6,4 km/h (2 Bft) 95,74 %
12.07.2023 23:12 19,7 C 18,9 C 16,1 C 70 % 1014,3 hPa 0,0 l/m 0 min 0 min 0 W/m 3,2 km/h (1 Bft) 95,74 %
12.07.2023 23:14 19,7 C 18,9 C 15,6 C 71 % 1014,3 hPa 0,0 l/m 0 min 0 min 0 W/m 3,2 km/h (1 Bft) 95,74 %
12.07.2023 23:16 19,7 C 18,3 C 15,6 C 72 % 1014,3 hPa 0,0 l/m 0 min 0 min 0 W/m 3,2 km/h (1 Bft) 95,74 %
12.07.2023 23:18 19,7 C 18,3 C 15,6 C 72 % 1014,4 hPa 0,0 l/m 0 min 0 min 0 W/m 3,2 km/h (1 Bft) 97,56 %
12.07.2023 23:20 19,7 C 18,3 C 15,6 C 73 % 1014,4 hPa 0,0 l/m 0 min 0 min 0 W/m 3,2 km/h (1 Bft) 98,00 %
12.07.2023 23:22 19,6 C 18,3 C 15,0 C 73 % 1014,5 hPa 0,0 l/m 0 min 0 min 0 W/m 6,4 km/h (2 Bft) 97,96 %
12.07.2023 23:24 19,6 C 18,3 C 15,6 C 73 % 1014,4 hPa 0,0 l/m 0 min 0 min 0 W/m 3,2 km/h (1 Bft) 97,87 %
12.07.2023 23:26 19,5 C 18,3 C 15,6 C 73 % 1014,5 hPa 0,0 l/m 0 min 0 min 0 W/m 6,4 km/h (2 Bft) 95,74 %
12.07.2023 23:28 19,4 C 18,3 C 15,0 C 72 % 1014,5 hPa 0,0 l/m 0 min 0 min 0 W/m 3,2 km/h (1 Bft) 97,14 %
12.07.2023 23:30 19,4 C 18,3 C 15,0 C 72 % 1014,5 hPa 0,0 l/m 0 min 0 min 0 W/m 3,2 km/h (1 Bft) 96,30 %
12.07.2023 23:32 19,3 C 18,3 C 15,0 C 72 % 1014,6 hPa 0,0 l/m 0 min 0 min 0 W/m 6,4 km/h (2 Bft) 98,00 %
12.07.2023 23:34 19,3 C 18,3 C 15,0 C 71 % 1014,6 hPa 0,0 l/m 0 min 0 min 0 W/m 9,7 km/h (2 Bft) 97,92 %
12.07.2023 23:36 19,3 C 18,3 C 15,0 C 70 % 1014,6 hPa 0,0 l/m 0 min 0 min 0 W/m 3,2 km/h (1 Bft) 97,14 %
12.07.2023 23:38 19,2 C 17,8 C 15,0 C 71 % 1014,7 hPa 0,0 l/m 0 min 0 min 0 W/m 6,4 km/h (2 Bft) 98,18 %
12.07.2023 23:40 19,2 C 17,8 C 15,0 C 69 % 1014,7 hPa 0,0 l/m 0 min 0 min 0 W/m 9,7 km/h (2 Bft) 97,87 %
12.07.2023 23:42 19,1 C 18,3 C 15,0 C 69 % 1014,7 hPa 0,0 l/m 0 min 0 min 0 W/m 6,4 km/h (2 Bft) 97,87 %
12.07.2023 23:44 19,1 C 17,8 C 15,0 C 69 % 1014,7 hPa 0,0 l/m 0 min 0 min 0 W/m 3,2 km/h (1 Bft) 97,87 %
12.07.2023 23:46 19,1 C 18,3 C 15,0 C 69 % 1014,7 hPa 0,0 l/m 0 min 0 min 0 W/m 6,4 km/h (2 Bft) 97,87 %
12.07.2023 23:48 19,0 C 18,3 C 15,0 C 68 % 1014,8 hPa 0,0 l/m 0 min 0 min 0 W/m 6,4 km/h (2 Bft) 97,87 %
12.07.2023 23:50 19,0 C 17,8 C 15,0 C 68 % 1014,8 hPa 0,0 l/m 0 min 0 min 0 W/m 3,2 km/h (1 Bft) 95,74 %
12.07.2023 23:52 18,9 C 18,3 C 15,0 C 68 % 1014,8 hPa 0,0 l/m 0 min 0 min 0 W/m 6,4 km/h (2 Bft) 95,65 %
12.07.2023 23:54 18,9 C 17,8 C 15,0 C 67 % 1014,8 hPa 0,0 l/m 0 min 0 min 0 W/m 6,4 km/h (2 Bft) 95,24 %
12.07.2023 23:56 18,9 C 17,8 C 15,0 C 67 % 1014,8 hPa 0,0 l/m 0 min 0 min 0 W/m 3,2 km/h (1 Bft) 97,87 %
12.07.2023 23:58 18,9 C 17,8 C 15,0 C 67 % 1014,8 hPa 0,0 l/m 0 min 0 min 0 W/m 6,4 km/h (2 Bft) 94,23 %
_ Min-Zeit 06:46 05:02 04:48 16:52 00:04 - - - - 02:30 00:02
Minimum _ 16,9 C 16,1 C 12,8 C 49 % 1007,6 hPa - - - - 0,0 km/h (0 Bft) 14,29 %
_ Max-Zeit 16:46 15:22 12:36 06:36 23:48 05:02 12:12 04:05 14:08 00:50 04:12
Maximum _ 26,0 C 30,6 C 27,2 C 96 % 1014,8 hPa 0,8 l/m 4 min 5 min 1085 W/m 48,3 km/h
W (6 Bft)
505,36 %
Durchschnitt _ 21,5 C 22,1 C 17,6 C 73 % 1011,9 hPa #4,4 l/m #9:13 h #1:52 h 470 W/m 13,1 km/h (3 Bft) 99,16 %
© 2023 W. Hausmann